Observation data for Sweetwater on 11/17/2019      Previous  Date  Next       Current Mesonet Observations  Soil Data  Daily Summary Page  Observations in Plain Language
KSW1 170600Z 18010KT 09/04 A2999 RMK A01 T00920039  RH  069%=      5-min Rain = 0
KSW1 170601Z 18010KT 09/04 A30 RMK A01 T00910039  RH  070%=      5-min Rain = 0
KSW1 170602Z 19010KT 09/04 A30 RMK A01 T00910039  RH  070%=      5-min Rain = 0
KSW1 170603Z 18011KT 09/04 A2999 RMK A01 T00900039  RH  070%=      5-min Rain = 0
KSW1 170604Z 18010KT 09/04 A2999 RMK A01 T00900039  RH  070%=      5-min Rain = 0
KSW1 170605Z 18010KT 09/04 A2999 RMK A01 T00900039  RH  070%=      5-min Rain = 0
KSW1 170606Z 18011KT 09/04 A2999 RMK A01 T00900039  RH  070%=      5-min Rain = 0
KSW1 170607Z 18012KT 09/04 A2999 RMK A01 T00900038  RH  070%=      5-min Rain = 0
KSW1 170608Z 19009KT 09/04 A2999 RMK A01 T00910038  RH  070%=      5-min Rain = 0
KSW1 170609Z 19010G15KT 09/04 A2999 RMK A01 T00910038  RH  070%=      5-min Rain = 0
KSW1 170610Z 19010KT 09/04 A2999 RMK A01 T00910039  RH  070%=      5-min Rain = 0
KSW1 170611Z 19011KT 09/04 A2999 RMK A01 T00900039  RH  070%=      5-min Rain = 0
KSW1 170612Z 19010KT 09/04 A2999 RMK A01 T00900039  RH  070%=      5-min Rain = 0
KSW1 170613Z 19009KT 09/04 A2999 RMK A01 T00900038  RH  070%=      5-min Rain = 0
KSW1 170614Z 18010KT 09/04 A2999 RMK A01 T00900039  RH  070%=      5-min Rain = 0
KSW1 170615Z 19009KT 09/04 A2999 RMK A01 T00900038  RH  070%=      5-min Rain = 0
KSW1 170616Z 19010KT 09/04 A2999 RMK A01 T00900039  RH  070%=      5-min Rain = 0
KSW1 170617Z 19010KT 09/04 A2999 RMK A01 T00890038  RH  070%=      5-min Rain = 0
KSW1 170618Z 19011KT 09/04 A2999 RMK A01 T00890039  RH  070%=      5-min Rain = 0
KSW1 170619Z 19011KT 09/04 A2999 RMK A01 T00900038  RH  070%=      5-min Rain = 0
KSW1 170620Z 19011KT 09/04 A2999 RMK A01 T00900039  RH  070%=      5-min Rain = 0
KSW1 170621Z 19010KT 09/04 A2999 RMK A01 T00900039  RH  070%=      5-min Rain = 0
KSW1 170622Z 19010KT 09/04 A2999 RMK A01 T00900039  RH  070%=      5-min Rain = 0
KSW1 170623Z 19009KT 09/04 A2999 RMK A01 T00910039  RH  070%=      5-min Rain = 0
KSW1 170624Z 19008KT 09/04 A2999 RMK A01 T00900039  RH  070%=      5-min Rain = 0
KSW1 170625Z 19010KT 09/04 A2999 RMK A01 T00900039  RH  070%=      5-min Rain = 0
KSW1 170626Z 19010KT 09/04 A2999 RMK A01 T00900039  RH  070%=      5-min Rain = 0
KSW1 170627Z 19010KT 09/04 A2999 RMK A01 T00900039  RH  070%=      5-min Rain = 0
KSW1 170628Z 19010KT 09/04 A2999 RMK A01 T00900038  RH  070%=      5-min Rain = 0
KSW1 170629Z 19009KT 09/04 A2999 RMK A01 T00910039  RH  070%=      5-min Rain = 0
KSW1 170630Z 19011KT 09/04 A2999 RMK A01 T00900039  RH  070%=      5-min Rain = 0
KSW1 170631Z 18011KT 09/04 A2999 RMK A01 T00910039  RH  070%=      5-min Rain = 0
KSW1 170632Z 19009KT 09/04 A2999 RMK A01 T00920039  RH  069%=      5-min Rain = 0
KSW1 170633Z 19011KT 09/04 A2999 RMK A01 T00910039  RH  070%=      5-min Rain = 0
KSW1 170634Z 19010KT 09/04 A2999 RMK A01 T00910039  RH  070%=      5-min Rain = 0
KSW1 170635Z 19010KT 09/04 A2999 RMK A01 T00910039  RH  070%=      5-min Rain = 0
KSW1 170636Z 19009KT 09/04 A2999 RMK A01 T00910039  RH  070%=      5-min Rain = 0
KSW1 170637Z 19010KT 09/04 A2999 RMK A01 T00900039  RH  070%=      5-min Rain = 0
KSW1 170638Z 19009KT 09/04 A2999 RMK A01 T00900039  RH  070%=      5-min Rain = 0
KSW1 170639Z 20009KT 09/04 A2999 RMK A01 T00890039  RH  071%=      5-min Rain = 0
KSW1 170640Z 19010KT 09/04 A2999 RMK A01 T00890039  RH  071%=      5-min Rain = 0
KSW1 170641Z 20010KT 09/04 A2999 RMK A01 T00890038  RH  071%=      5-min Rain = 0
KSW1 170642Z 20010KT 09/04 A2999 RMK A01 T00890038  RH  071%=      5-min Rain = 0
KSW1 170643Z 19009KT 09/04 A2999 RMK A01 T00890038  RH  071%=      5-min Rain = 0
KSW1 170644Z 20009KT 09/04 A2999 RMK A01 T00890038  RH  071%=      5-min Rain = 0
KSW1 170645Z 19009KT 09/04 A2999 RMK A01 T00880038  RH  071%=      5-min Rain = 0
KSW1 170646Z 20011KT 09/04 A2999 RMK A01 T00870038  RH  071%=      5-min Rain = 0
KSW1 170647Z 19010KT 09/04 A2999 RMK A01 T00870038  RH  071%=      5-min Rain = 0
KSW1 170648Z 19010KT 09/04 A2999 RMK A01 T00870038  RH  071%=      5-min Rain = 0
KSW1 170649Z 19010KT 09/04 A2999 RMK A01 T00870038  RH  071%=      5-min Rain = 0
KSW1 170650Z 19010KT 09/04 A2999 RMK A01 T00870038  RH  071%=      5-min Rain = 0
KSW1 170651Z 20010KT 09/04 A2999 RMK A01 T00870038  RH  072%=      5-min Rain = 0
KSW1 170652Z 20010KT 09/04 A2999 RMK A01 T00860038  RH  072%=      5-min Rain = 0
KSW1 170653Z 20011KT 09/04 A2999 RMK A01 T00860038  RH  072%=      5-min Rain = 0
KSW1 170654Z 20010KT 09/04 A2999 RMK A01 T00870038  RH  072%=      5-min Rain = 0
KSW1 170655Z 20009KT 09/04 A2999 RMK A01 T00870038  RH  072%=      5-min Rain = 0
KSW1 170656Z 20010KT 09/04 A2999 RMK A01 T00870038  RH  072%=      5-min Rain = 0
KSW1 170657Z 20011KT 09/04 A2999 RMK A01 T00870038  RH  071%=      5-min Rain = 0
KSW1 170658Z 19012KT 09/04 A2999 RMK A01 T00870038  RH  071%=      5-min Rain = 0
KSW1 170659Z 19011KT 09/04 A2999 RMK A01 T00870038  RH  071%=      5-min Rain = 0
KSW1 170700Z 19011KT 09/04 A2999 RMK A01 T00870038  RH  071%=      5-min Rain = 0
KSW1 170701Z 20011KT 09/04 A2999 RMK A01 T00870038  RH  072%=      5-min Rain = 0
KSW1 170702Z 20010KT 09/04 A2999 RMK A01 T00870038  RH  072%=      5-min Rain = 0
KSW1 170703Z 20010KT 09/04 A2999 RMK A01 T00860038  RH  072%=      5-min Rain = 0
KSW1 170704Z 19011KT 09/04 A2999 RMK A01 T00860038  RH  072%=      5-min Rain = 0
KSW1 170705Z 19011KT 09/04 A2999 RMK A01 T00860038  RH  072%=      5-min Rain = 0
KSW1 170706Z 20010KT 09/04 A2999 RMK A01 T00870038  RH  071%=      5-min Rain = 0
KSW1 170707Z 19010KT 09/04 A2999 RMK A01 T00870038  RH  071%=      5-min Rain = 0
KSW1 170708Z 19011KT 09/04 A2999 RMK A01 T00870038  RH  072%=      5-min Rain = 0
KSW1 170709Z 19011KT 09/04 A2999 RMK A01 T00870038  RH  072%=      5-min Rain = 0
KSW1 170710Z 19010KT 09/04 A2999 RMK A01 T00870038  RH  071%=      5-min Rain = 0
KSW1 170711Z 19010KT 09/04 A2999 RMK A01 T00870038  RH  071%=      5-min Rain = 0
KSW1 170712Z 19009KT 09/04 A2999 RMK A01 T00870038  RH  071%=      5-min Rain = 0
KSW1 170713Z 19010KT 09/04 A2999 RMK A01 T00870038  RH  071%=      5-min Rain = 0
KSW1 170714Z 19009KT 09/04 A2999 RMK A01 T00870038  RH  071%=      5-min Rain = 0
KSW1 170715Z 19009KT 09/04 A2999 RMK A01 T00870038  RH  071%=      5-min Rain = 0
KSW1 170716Z 19009KT 09/04 A2999 RMK A01 T00870038  RH  072%=      5-min Rain = 0
KSW1 170717Z 20009KT 09/04 A2999 RMK A01 T00870038  RH  071%=      5-min Rain = 0
KSW1 170718Z 19010KT 09/04 A2999 RMK A01 T00870038  RH  071%=      5-min Rain = 0
KSW1 170719Z 19008KT 09/04 A2999 RMK A01 T00870038  RH  071%=      5-min Rain = 0
KSW1 170720Z 19008KT 09/04 A30 RMK A01 T00870038  RH  071%=      5-min Rain = 0
KSW1 170721Z 19008KT 09/04 A2999 RMK A01 T00870038  RH  072%=      5-min Rain = 0
KSW1 170722Z 19008KT 09/04 A30 RMK A01 T00860038  RH  072%=      5-min Rain = 0
KSW1 170723Z 19008KT 09/04 A2999 RMK A01 T00860038  RH  072%=      5-min Rain = 0
KSW1 170724Z 19008KT 09/04 A2999 RMK A01 T00860038  RH  072%=      5-min Rain = 0
KSW1 170725Z 19006KT 09/04 A30 RMK A01 T00860038  RH  072%=      5-min Rain = 0
KSW1 170726Z 19007KT 09/04 A30 RMK A01 T00860038  RH  072%=      5-min Rain = 0
KSW1 170727Z 19007KT 09/04 A30 RMK A01 T00850038  RH  072%=      5-min Rain = 0
KSW1 170728Z 19006KT 09/04 A30 RMK A01 T00850037  RH  072%=      5-min Rain = 0
KSW1 170729Z 19007KT 09/04 A30 RMK A01 T00850037  RH  072%=      5-min Rain = 0
KSW1 170730Z 19007KT 09/04 A30 RMK A01 T00850037  RH  072%=      5-min Rain = 0
KSW1 170731Z 19007KT 09/04 A30 RMK A01 T00850037  RH  072%=      5-min Rain = 0
KSW1 170732Z 19006KT 09/04 A30 RMK A01 T00850038  RH  072%=      5-min Rain = 0
KSW1 170733Z 19006KT 09/04 A30 RMK A01 T00850038  RH  072%=      5-min Rain = 0
KSW1 170734Z 19006KT 08/04 A2999 RMK A01 T00840038  RH  072%=      5-min Rain = 0
KSW1 170735Z 19006KT 08/04 A2999 RMK A01 T00840038  RH  073%=      5-min Rain = 0
KSW1 170736Z 19006KT 08/04 A2999 RMK A01 T00840037  RH  073%=      5-min Rain = 0
KSW1 170737Z 20006KT 08/04 A2999 RMK A01 T00840038  RH  073%=      5-min Rain = 0
KSW1 170738Z 20006KT 08/04 A2999 RMK A01 T00840038  RH  073%=      5-min Rain = 0
KSW1 170739Z 20006KT 08/04 A2999 RMK A01 T00830037  RH  073%=      5-min Rain = 0
KSW1 170740Z 19006KT 08/04 A2999 RMK A01 T00830037  RH  073%=      5-min Rain = 0
KSW1 170741Z 20006KT 08/04 A2999 RMK A01 T00830037  RH  073%=      5-min Rain = 0
KSW1 170742Z 20007KT 08/04 A30 RMK A01 T00830037  RH  073%=      5-min Rain = 0
KSW1 170743Z 20007KT 08/04 A30 RMK A01 T00830037  RH  073%=      5-min Rain = 0
KSW1 170744Z 20007KT 08/04 A30 RMK A01 T00830037  RH  073%=      5-min Rain = 0
KSW1 170745Z 20007KT 08/04 A30 RMK A01 T00840037  RH  073%=      5-min Rain = 0
KSW1 170746Z 20008KT 08/04 A2999 RMK A01 T00830037  RH  073%=      5-min Rain = 0
KSW1 170747Z 20007KT 08/04 A2999 RMK A01 T00840037  RH  073%=      5-min Rain = 0
KSW1 170748Z 20006KT 08/04 A2999 RMK A01 T00840037  RH  073%=      5-min Rain = 0
KSW1 170749Z 20007KT 08/04 A2999 RMK A01 T00830037  RH  073%=      5-min Rain = 0
KSW1 170750Z 20007KT 08/04 A30 RMK A01 T00810037  RH  073%=      5-min Rain = 0
KSW1 170751Z 20007KT 08/04 A30 RMK A01 T00810037  RH  074%=      5-min Rain = 0
KSW1 170752Z 20006KT 08/04 A30 RMK A01 T00800037  RH  074%=      5-min Rain = 0
KSW1 170753Z 20007KT 08/04 A30 RMK A01 T00800037  RH  074%=      5-min Rain = 0
KSW1 170754Z 20007KT 08/04 A30 RMK A01 T00800037  RH  074%=      5-min Rain = 0
KSW1 170755Z 20007KT 08/04 A30 RMK A01 T00790036  RH  074%=      5-min Rain = 0
KSW1 170756Z 20007KT 08/04 A2999 RMK A01 T00790036  RH  074%=      5-min Rain = 0
KSW1 170757Z 20007KT 08/04 A2999 RMK A01 T00780036  RH  075%=      5-min Rain = 0
KSW1 170758Z 20007KT 08/04 A2999 RMK A01 T00780036  RH  075%=      5-min Rain = 0
KSW1 170759Z 20008KT 08/04 A30 RMK A01 T00770036  RH  075%=      5-min Rain = 0
KSW1 170800Z 20008KT 08/04 A2999 RMK A01 T00780037  RH  075%=      5-min Rain = 0
KSW1 170801Z 20007KT 08/04 A30 RMK A01 T00770036  RH  075%=      5-min Rain = 0
KSW1 170802Z 20007KT 08/04 A30 RMK A01 T00770037  RH  075%=      5-min Rain = 0
KSW1 170803Z 20008KT 08/04 A30 RMK A01 T00770037  RH  075%=      5-min Rain = 0
KSW1 170804Z 20007KT 08/04 A30 RMK A01 T00770037  RH  076%=      5-min Rain = 0
KSW1 170805Z 20007KT 08/04 A30 RMK A01 T00760036  RH  076%=      5-min Rain = 0
KSW1 170806Z 20007KT 08/04 A30 RMK A01 T00760036  RH  076%=      5-min Rain = 0
KSW1 170807Z 20007KT 08/04 A30 RMK A01 T00760036  RH  076%=      5-min Rain = 0
KSW1 170808Z 20007KT 08/04 A30 RMK A01 T00760036  RH  076%=      5-min Rain = 0
KSW1 170809Z 20007KT 08/04 A30 RMK A01 T00750036  RH  076%=      5-min Rain = 0
KSW1 170810Z 20007KT 08/04 A30 RMK A01 T00750036  RH  076%=      5-min Rain = 0
KSW1 170811Z 20007KT 08/04 A30 RMK A01 T00750036  RH  076%=      5-min Rain = 0
KSW1 170812Z 20007KT 08/04 A30 RMK A01 T00750036  RH  076%=      5-min Rain = 0
KSW1 170813Z 19007KT 08/04 A30 RMK A01 T00750036  RH  076%=      5-min Rain = 0
KSW1 170814Z 20007KT 08/04 A2999 RMK A01 T00750036  RH  076%=      5-min Rain = 0
KSW1 170815Z 20007KT 08/04 A2999 RMK A01 T00750036  RH  076%=      5-min Rain = 0
KSW1 170816Z 20007KT 08/04 A2999 RMK A01 T00750036  RH  076%=      5-min Rain = 0
KSW1 170817Z 20006KT 08/04 A2999 RMK A01 T00750036  RH  076%=      5-min Rain = 0
KSW1 170818Z 20006KT 08/04 A2999 RMK A01 T00750036  RH  076%=      5-min Rain = 0
KSW1 170819Z 19006KT 08/04 A2999 RMK A01 T00750036  RH  076%=      5-min Rain = 0
KSW1 170820Z 19006KT 08/04 A2999 RMK A01 T00750036  RH  076%=      5-min Rain = 0
KSW1 170821Z 19006KT 07/04 A2999 RMK A01 T00740036  RH  077%=      5-min Rain = 0
KSW1 170822Z 20006KT 07/04 A2999 RMK A01 T00740036  RH  077%=      5-min Rain = 0
KSW1 170823Z 19006KT 07/04 A2999 RMK A01 T00730035  RH  077%=      5-min Rain = 0
KSW1 170824Z 20006KT 07/04 A2999 RMK A01 T00730036  RH  077%=      5-min Rain = 0
KSW1 170825Z 19005KT 07/04 A2999 RMK A01 T00730036  RH  077%=      5-min Rain = 0
KSW1 170826Z 19005KT 07/04 A2999 RMK A01 T00720035  RH  077%=      5-min Rain = 0
KSW1 170827Z 19005KT 07/04 A2999 RMK A01 T00720035  RH  078%=      5-min Rain = 0
KSW1 170828Z 19005KT 07/04 A2999 RMK A01 T00710035  RH  078%=      5-min Rain = 0
KSW1 170829Z 19005KT 07/04 A2999 RMK A01 T00700035  RH  078%=      5-min Rain = 0
KSW1 170830Z 19005KT 07/03 A30 RMK A01 T00700034  RH  078%=      5-min Rain = 0
KSW1 170831Z 19005KT 07/04 A30 RMK A01 T00690035  RH  079%=      5-min Rain = 0
KSW1 170832Z 19004KT 07/04 A30 RMK A01 T00700035  RH  078%=      5-min Rain = 0
KSW1 170833Z 19004KT 07/04 A30 RMK A01 T00700035  RH  078%=      5-min Rain = 0
KSW1 170834Z 19004KT 07/04 A30 RMK A01 T00700035  RH  078%=      5-min Rain = 0
KSW1 170835Z 19004KT 07/04 A30 RMK A01 T00710035  RH  078%=      5-min Rain = 0
KSW1 170836Z 19005KT 07/04 A30 RMK A01 T00710035  RH  078%=      5-min Rain = 0
KSW1 170837Z 19005KT 07/04 A30 RMK A01 T00710035  RH  078%=      5-min Rain = 0
KSW1 170838Z 19005KT 07/04 A30 RMK A01 T00710035  RH  078%=      5-min Rain = 0
KSW1 170839Z 19005KT 07/04 A30 RMK A01 T00710035  RH  078%=      5-min Rain = 0
KSW1 170840Z 19005KT 07/04 A30 RMK A01 T00710035  RH  078%=      5-min Rain = 0
KSW1 170841Z 19005KT 07/04 A30 RMK A01 T00710035  RH  078%=      5-min Rain = 0
KSW1 170842Z 19005KT 07/04 A30 RMK A01 T00720035  RH  078%=      5-min Rain = 0
KSW1 170843Z 19005KT 07/04 A30 RMK A01 T00720035  RH  077%=      5-min Rain = 0
KSW1 170844Z 19005KT 07/04 A30 RMK A01 T00720035  RH  077%=      5-min Rain = 0
KSW1 170845Z 19005KT 07/04 A30 RMK A01 T00720035  RH  077%=      5-min Rain = 0
KSW1 170846Z 19005KT 07/04 A30 RMK A01 T00720035  RH  077%=      5-min Rain = 0
KSW1 170847Z 19006KT 07/04 A30 RMK A01 T00710035  RH  077%=      5-min Rain = 0
KSW1 170848Z 19006KT 07/04 A30 RMK A01 T00710035  RH  078%=      5-min Rain = 0
KSW1 170849Z 19006KT 07/04 A30 RMK A01 T00710035  RH  078%=      5-min Rain = 0
KSW1 170850Z 19006KT 07/04 A2999 RMK A01 T00710035  RH  078%=      5-min Rain = 0
KSW1 170851Z 19007KT 07/04 A2999 RMK A01 T00710035  RH  078%=      5-min Rain = 0
KSW1 170852Z 18007KT 07/04 A2999 RMK A01 T00710035  RH  078%=      5-min Rain = 0
KSW1 170853Z 18006KT 07/03 A2999 RMK A01 T00700034  RH  078%=      5-min Rain = 0
KSW1 170854Z 18006KT 07/03 A2999 RMK A01 T00680032  RH  078%=      5-min Rain = 0
KSW1 170855Z 18007KT 07/03 A2999 RMK A01 T00650031  RH  079%=      5-min Rain = 0
KSW1 170856Z 18007KT 06/03 A2999 RMK A01 T00630031  RH  080%=      5-min Rain = 0
KSW1 170857Z 18007KT 06/03 A2999 RMK A01 T00620031  RH  081%=      5-min Rain = 0
KSW1 170858Z 18007KT 06/03 A2999 RMK A01 T00610031  RH  081%=      5-min Rain = 0
KSW1 170859Z 18007KT 06/03 A2999 RMK A01 T00610031  RH  082%=      5-min Rain = 0
KSW1 170900Z 18008KT 06/03 A2999 RMK A01 T00600032  RH  082%=      5-min Rain = 0
KSW1 170901Z 17008KT 06/03 A2999 RMK A01 T00600032  RH  082%=      5-min Rain = 0
KSW1 170902Z 17008KT 06/03 A2998 RMK A01 T00610033  RH  082%=      5-min Rain = 0
KSW1 170903Z 17007KT 06/03 A2998 RMK A01 T00610032  RH  082%=      5-min Rain = 0
KSW1 170904Z 17008KT 06/03 A2998 RMK A01 T00610033  RH  082%=      5-min Rain = 0
KSW1 170905Z 17008KT 06/03 A2998 RMK A01 T00610033  RH  082%=      5-min Rain = 0
KSW1 170906Z 17008KT 06/03 A2998 RMK A01 T00620033  RH  082%=      5-min Rain = 0
KSW1 170907Z 17007KT 06/03 A2998 RMK A01 T00620033  RH  082%=      5-min Rain = 0
KSW1 170908Z 17007KT 06/03 A2998 RMK A01 T00630034  RH  082%=      5-min Rain = 0
KSW1 170909Z 17007KT 06/03 A2998 RMK A01 T00640034  RH  081%=      5-min Rain = 0
KSW1 170910Z 17006KT 06/03 A2998 RMK A01 T00640034  RH  081%=      5-min Rain = 0
KSW1 170911Z 17006KT 07/03 A2998 RMK A01 T00650034  RH  080%=      5-min Rain = 0
KSW1 170912Z 18006KT 07/03 A2998 RMK A01 T00650034  RH  080%=      5-min Rain = 0
KSW1 170913Z 18006KT 07/03 A2999 RMK A01 T00660034  RH  080%=      5-min Rain = 0
KSW1 170914Z 18006KT 07/04 A2998 RMK A01 T00670035  RH  080%=      5-min Rain = 0
KSW1 170915Z 18007KT 07/03 A2998 RMK A01 T00670034  RH  079%=      5-min Rain = 0
KSW1 170916Z 18006KT 07/04 A2998 RMK A01 T00680035  RH  080%=      5-min Rain = 0
KSW1 170917Z 18006KT 07/04 A2998 RMK A01 T00680035  RH  079%=      5-min Rain = 0
KSW1 170918Z 18007KT 07/04 A2998 RMK A01 T00680035  RH  080%=      5-min Rain = 0
KSW1 170919Z 18007KT 07/04 A2998 RMK A01 T00680036  RH  080%=      5-min Rain = 0
KSW1 170920Z 18007KT 07/04 A2998 RMK A01 T00690036  RH  079%=      5-min Rain = 0
KSW1 170921Z 18007KT 07/04 A2998 RMK A01 T00690035  RH  079%=      5-min Rain = 0
KSW1 170922Z 18007KT 07/04 A2998 RMK A01 T00700035  RH  079%=      5-min Rain = 0
KSW1 170923Z 18006KT 07/04 A2998 RMK A01 T00690035  RH  079%=      5-min Rain = 0
KSW1 170924Z 18006KT 07/04 A2998 RMK A01 T00690035  RH  079%=      5-min Rain = 0
KSW1 170925Z 19006KT 07/04 A2998 RMK A01 T00680035  RH  079%=      5-min Rain = 0
KSW1 170926Z 19006KT 07/04 A2998 RMK A01 T00670035  RH  080%=      5-min Rain = 0
KSW1 170927Z 19006KT 07/03 A2998 RMK A01 T00660034  RH  080%=      5-min Rain = 0
KSW1 170928Z 19006KT 07/04 A2998 RMK A01 T00660035  RH  080%=      5-min Rain = 0
KSW1 170929Z 19006KT 07/04 A2998 RMK A01 T00660035  RH  080%=      5-min Rain = 0
KSW1 170930Z 19006KT 07/04 A2998 RMK A01 T00670035  RH  080%=      5-min Rain = 0
KSW1 170931Z 19006KT 07/03 A2998 RMK A01 T00670034  RH  080%=      5-min Rain = 0
KSW1 170932Z 19006KT 07/03 A2998 RMK A01 T00670034  RH  080%=      5-min Rain = 0
KSW1 170933Z 19006KT 07/04 A2998 RMK A01 T00670035  RH  080%=      5-min Rain = 0
KSW1 170934Z 19006KT 07/04 A2998 RMK A01 T00670035  RH  080%=      5-min Rain = 0
KSW1 170935Z 19006KT 07/04 A2998 RMK A01 T00670035  RH  080%=      5-min Rain = 0
KSW1 170936Z 19006KT 07/04 A2998 RMK A01 T00670035  RH  080%=      5-min Rain = 0
KSW1 170937Z 19006KT 07/04 A2998 RMK A01 T00680035  RH  080%=      5-min Rain = 0
KSW1 170938Z 19006KT 07/04 A2998 RMK A01 T00680035  RH  080%=      5-min Rain = 0
KSW1 170939Z 19006KT 07/03 A2998 RMK A01 T00670034  RH  080%=      5-min Rain = 0
KSW1 170940Z 19006KT 07/03 A2998 RMK A01 T00660034  RH  080%=      5-min Rain = 0
KSW1 170941Z 19006KT 07/03 A2998 RMK A01 T00650033  RH  080%=      5-min Rain = 0
KSW1 170942Z 19006KT 06/03 A2998 RMK A01 T00640033  RH  080%=      5-min Rain = 0
KSW1 170943Z 19006KT 06/03 A2998 RMK A01 T00630033  RH  081%=      5-min Rain = 0
KSW1 170944Z 20006KT 06/03 A2998 RMK A01 T00630033  RH  081%=      5-min Rain = 0
KSW1 170945Z 20006KT 06/03 A2998 RMK A01 T00630033  RH  081%=      5-min Rain = 0
KSW1 170946Z 20006KT 06/03 A2998 RMK A01 T00630033  RH  081%=      5-min Rain = 0
KSW1 170947Z 20006KT 06/03 A2998 RMK A01 T00630034  RH  082%=      5-min Rain = 0
KSW1 170948Z 19006KT 06/03 A2998 RMK A01 T00630034  RH  082%=      5-min Rain = 0
KSW1 170949Z 20006KT 06/03 A2998 RMK A01 T00630034  RH  082%=      5-min Rain = 0
KSW1 170950Z 19006KT 06/03 A2998 RMK A01 T00630034  RH  082%=      5-min Rain = 0
KSW1 170951Z 19006KT 06/03 A2998 RMK A01 T00640034  RH  081%=      5-min Rain = 0
KSW1 170952Z 19006KT 06/03 A2998 RMK A01 T00630034  RH  081%=      5-min Rain = 0
KSW1 170953Z 19006KT 06/03 A2998 RMK A01 T00630033  RH  081%=      5-min Rain = 0
KSW1 170954Z 19006KT 06/03 A2998 RMK A01 T00630033  RH  081%=      5-min Rain = 0
KSW1 170955Z 19006KT 06/03 A2998 RMK A01 T00630033  RH  081%=      5-min Rain = 0
KSW1 170956Z 19006KT 06/03 A2998 RMK A01 T00630033  RH  081%=      5-min Rain = 0
KSW1 170957Z 20006KT 06/03 A2998 RMK A01 T00630033  RH  082%=      5-min Rain = 0
KSW1 170958Z 19006KT 06/03 A2998 RMK A01 T00630033  RH  082%=      5-min Rain = 0
KSW1 170959Z 20005KT 06/03 A2998 RMK A01 T00620033  RH  082%=      5-min Rain = 0
KSW1 171000Z 20006KT 06/03 A2998 RMK A01 T00630033  RH  082%=      5-min Rain = 0
KSW1 171001Z 20006KT 06/03 A2998 RMK A01 T00630033  RH  081%=      5-min Rain = 0
KSW1 171002Z 20006KT 06/03 A2998 RMK A01 T00630034  RH  081%=      5-min Rain = 0
KSW1 171003Z 20006KT 06/03 A2998 RMK A01 T00630034  RH  082%=      5-min Rain = 0
KSW1 171004Z 20006KT 06/03 A2998 RMK A01 T00630034  RH  082%=      5-min Rain = 0
KSW1 171005Z 20006KT 06/03 A2998 RMK A01 T00630034  RH  082%=      5-min Rain = 0
KSW1 171006Z 20006KT 06/03 A2998 RMK A01 T00630034  RH  082%=      5-min Rain = 0
KSW1 171007Z 20006KT 06/03 A2998 RMK A01 T00630034  RH  081%=      5-min Rain = 0
KSW1 171008Z 20006KT 06/03 A2998 RMK A01 T00630033  RH  081%=      5-min Rain = 0
KSW1 171009Z 20006KT 06/03 A2998 RMK A01 T00630033  RH  081%=      5-min Rain = 0
KSW1 171010Z 20006KT 06/03 A2998 RMK A01 T00630034  RH  081%=      5-min Rain = 0
KSW1 171011Z 20005KT 06/03 A2998 RMK A01 T00630034  RH  081%=      5-min Rain = 0
KSW1 171012Z 20005KT 06/03 A2998 RMK A01 T00630034  RH  081%=      5-min Rain = 0
KSW1 171013Z 20005KT 06/03 A2998 RMK A01 T00630034  RH  081%=      5-min Rain = 0
KSW1 171014Z 20005KT 06/03 A2998 RMK A01 T00630034  RH  081%=      5-min Rain = 0
KSW1 171015Z 20005KT 06/03 A2998 RMK A01 T00640034  RH  081%=      5-min Rain = 0
KSW1 171016Z 19005KT 06/03 A2998 RMK A01 T00640034  RH  081%=      5-min Rain = 0
KSW1 171017Z 19005KT 06/03 A2998 RMK A01 T00640034  RH  081%=      5-min Rain = 0
KSW1 171018Z 19005KT 06/03 A2998 RMK A01 T00630033  RH  081%=      5-min Rain = 0
KSW1 171019Z 19005KT 06/03 A2998 RMK A01 T00640034  RH  081%=      5-min Rain = 0
KSW1 171020Z 19005KT 06/03 A2998 RMK A01 T00640033  RH  081%=      5-min Rain = 0
KSW1 171021Z 19005KT 06/03 A2998 RMK A01 T00640034  RH  081%=      5-min Rain = 0
KSW1 171022Z 19005KT 07/03 A2998 RMK A01 T00650034  RH  081%=      5-min Rain = 0
KSW1 171023Z 19005KT 06/03 A2998 RMK A01 T00640034  RH  081%=      5-min Rain = 0
KSW1 171024Z 20006KT 06/03 A2998 RMK A01 T00640034  RH  081%=      5-min Rain = 0
KSW1 171025Z 20006KT 06/03 A2998 RMK A01 T00640034  RH  081%=      5-min Rain = 0
KSW1 171026Z 20006KT 06/03 A2998 RMK A01 T00640034  RH  081%=      5-min Rain = 0
KSW1 171027Z 20006KT 06/03 A2998 RMK A01 T00640034  RH  081%=      5-min Rain = 0
KSW1 171028Z 20006KT 06/03 A2998 RMK A01 T00640034  RH  081%=      5-min Rain = 0
KSW1 171029Z 19006KT 06/03 A2998 RMK A01 T00640034  RH  081%=      5-min Rain = 0
KSW1 171030Z 19006KT 06/03 A2998 RMK A01 T00630033  RH  081%=      5-min Rain = 0
KSW1 171031Z 19007KT 06/03 A2997 RMK A01 T00630034  RH  081%=      5-min Rain = 0
KSW1 171032Z 19007KT 06/03 A2997 RMK A01 T00630034  RH  082%=      5-min Rain = 0
KSW1 171033Z 19007KT 06/03 A2997 RMK A01 T00630034  RH  082%=      5-min Rain = 0
KSW1 171034Z 19006KT 06/03 A2997 RMK A01 T00630034  RH  082%=      5-min Rain = 0
KSW1 171035Z 19006KT 06/03 A2998 RMK A01 T00630034  RH  082%=      5-min Rain = 0
KSW1 171036Z 19006KT 06/03 A2998 RMK A01 T00630033  RH  082%=      5-min Rain = 0
KSW1 171037Z 19006KT 06/03 A2998 RMK A01 T00620033  RH  082%=      5-min Rain = 0
KSW1 171038Z 19006KT 06/03 A2998 RMK A01 T00610033  RH  082%=      5-min Rain = 0
KSW1 171039Z 19006KT 06/03 A2998 RMK A01 T00610033  RH  082%=      5-min Rain = 0
KSW1 171040Z 19006KT 06/03 A2998 RMK A01 T00610033  RH  082%=      5-min Rain = 0
KSW1 171041Z 19006KT 06/03 A2998 RMK A01 T00610033  RH  082%=      5-min Rain = 0
KSW1 171042Z 19006KT 06/03 A2998 RMK A01 T00610033  RH  082%=      5-min Rain = 0
KSW1 171043Z 19006KT 06/03 A2998 RMK A01 T00610033  RH  082%=      5-min Rain = 0
KSW1 171044Z 19006KT 06/03 A2998 RMK A01 T00610033  RH  082%=      5-min Rain = 0
KSW1 171045Z 19006KT 06/03 A2998 RMK A01 T00610033  RH  082%=      5-min Rain = 0
KSW1 171046Z 19006KT 06/03 A2998 RMK A01 T00610033  RH  082%=      5-min Rain = 0
KSW1 171047Z 19007KT 06/03 A2998 RMK A01 T00610033  RH  082%=      5-min Rain = 0
KSW1 171048Z 19007KT 06/03 A2998 RMK A01 T00610033  RH  082%=      5-min Rain = 0
KSW1 171049Z 19007KT 06/03 A2998 RMK A01 T00610033  RH  082%=      5-min Rain = 0
KSW1 171050Z 19006KT 06/03 A2998 RMK A01 T00620033  RH  082%=      5-min Rain = 0
KSW1 171051Z 19006KT 06/03 A2998 RMK A01 T00620033  RH  082%=      5-min Rain = 0
KSW1 171052Z 19006KT 06/03 A2998 RMK A01 T00620032  RH  081%=      5-min Rain = 0
KSW1 171053Z 19005KT 06/03 A2998 RMK A01 T00610032  RH  082%=      5-min Rain = 0
KSW1 171054Z 19005KT 06/03 A2999 RMK A01 T00600032  RH  082%=      5-min Rain = 0
KSW1 171055Z 19005KT 06/03 A2999 RMK A01 T00600032  RH  082%=      5-min Rain = 0
KSW1 171056Z 19005KT 06/03 A2999 RMK A01 T00600032  RH  082%=      5-min Rain = 0
KSW1 171057Z 18005KT 06/03 A2999 RMK A01 T00600032  RH  082%=      5-min Rain = 0
KSW1 171058Z 18005KT 06/03 A2999 RMK A01 T00600032  RH  082%=      5-min Rain = 0
KSW1 171059Z 18005KT 06/03 A2999 RMK A01 T00600032  RH  082%=      5-min Rain = 0
KSW1 171100Z 18005KT 06/03 A2999 RMK A01 T00610032  RH  082%=      5-min Rain = 0
KSW1 171101Z 18005KT 06/03 A2999 RMK A01 T00610032  RH  082%=      5-min Rain = 0
KSW1 171102Z 18005KT 06/03 A2999 RMK A01 T00600032  RH  082%=      5-min Rain = 0
KSW1 171103Z 18005KT 06/03 A2999 RMK A01 T00600032  RH  082%=      5-min Rain = 0
KSW1 171104Z 18005KT 06/03 A2999 RMK A01 T00600031  RH  082%=      5-min Rain = 0
KSW1 171105Z 18006KT 06/03 A2999 RMK A01 T00590031  RH  082%=      5-min Rain = 0
KSW1 171106Z 18006KT 06/03 A2999 RMK A01 T00600032  RH  083%=      5-min Rain = 0
KSW1 171107Z 18006KT 06/03 A2999 RMK A01 T00590032  RH  083%=      5-min Rain = 0
KSW1 171108Z 18007KT 06/03 A2999 RMK A01 T00590032  RH  083%=      5-min Rain = 0
KSW1 171109Z 18007KT 06/03 A2999 RMK A01 T00590032  RH  083%=      5-min Rain = 0
KSW1 171110Z 18007KT 06/03 A2999 RMK A01 T00580032  RH  083%=      5-min Rain = 0
KSW1 171111Z 18007KT 06/03 A2999 RMK A01 T00580032  RH  083%=      5-min Rain = 0
KSW1 171112Z 19007KT 06/03 A2999 RMK A01 T00580032  RH  083%=      5-min Rain = 0
KSW1 171113Z 18007KT 06/03 A2999 RMK A01 T00580032  RH  084%=      5-min Rain = 0
KSW1 171114Z 18007KT 06/03 A2999 RMK A01 T00580032  RH  083%=      5-min Rain = 0
KSW1 171115Z 18007KT 06/03 A2999 RMK A01 T00580032  RH  083%=      5-min Rain = 0
KSW1 171116Z 19007KT 06/03 A2999 RMK A01 T00580032  RH  083%=      5-min Rain = 0
KSW1 171117Z 19007KT 06/03 A2999 RMK A01 T00580032  RH  083%=      5-min Rain = 0
KSW1 171118Z 19007KT 06/03 A2999 RMK A01 T00580032  RH  083%=      5-min Rain = 0
KSW1 171119Z 19007KT 06/03 A2999 RMK A01 T00580032  RH  083%=      5-min Rain = 0
KSW1 171120Z 19007KT 06/03 A2999 RMK A01 T00580031  RH  083%=      5-min Rain = 0
KSW1 171121Z 19008KT 06/03 A2999 RMK A01 T00590032  RH  083%=      5-min Rain = 0
KSW1 171122Z 19008KT 06/03 A2999 RMK A01 T00580032  RH  083%=      5-min Rain = 0
KSW1 171123Z 19008KT 06/03 A2999 RMK A01 T00580031  RH  083%=      5-min Rain = 0
KSW1 171124Z 19008KT 06/03 A2999 RMK A01 T00580031  RH  083%=      5-min Rain = 0
KSW1 171125Z 20008KT 06/03 A2999 RMK A01 T00570031  RH  083%=      5-min Rain = 0
KSW1 171126Z 20007KT 06/03 A2999 RMK A01 T00580032  RH  083%=      5-min Rain = 0
KSW1 171127Z 20007KT 06/03 A2999 RMK A01 T00570032  RH  084%=      5-min Rain = 0
KSW1 171128Z 21006KT 06/03 A2999 RMK A01 T00580032  RH  083%=      5-min Rain = 0
KSW1 171129Z 21007KT 06/03 A2999 RMK A01 T00590032  RH  083%=      5-min Rain = 0
KSW1 171130Z 20007KT 06/03 A2999 RMK A01 T00590032  RH  083%=      5-min Rain = 0
KSW1 171131Z 20006KT 06/03 A2999 RMK A01 T00600032  RH  083%=      5-min Rain = 0
KSW1 171132Z 20007KT 06/03 A2999 RMK A01 T00600032  RH  082%=      5-min Rain = 0
KSW1 171133Z 20006KT 06/03 A2999 RMK A01 T00610033  RH  082%=      5-min Rain = 0
KSW1 171134Z 20006KT 06/03 A2999 RMK A01 T00610032  RH  082%=      5-min Rain = 0
KSW1 171135Z 19006KT 06/03 A2999 RMK A01 T00620033  RH  082%=      5-min Rain = 0
KSW1 171136Z 19006KT 06/03 A2999 RMK A01 T00610032  RH  082%=      5-min Rain = 0
KSW1 171137Z 19005KT 06/03 A30 RMK A01 T00610032  RH  082%=      5-min Rain = 0
KSW1 171138Z 19005KT 06/03 A30 RMK A01 T00610032  RH  082%=      5-min Rain = 0
KSW1 171139Z 19005KT 06/03 A30 RMK A01 T00600032  RH  082%=      5-min Rain = 0
KSW1 171140Z 19005KT 06/03 A2999 RMK A01 T00600032  RH  082%=      5-min Rain = 0
KSW1 171141Z 19005KT 06/03 A2999 RMK A01 T00590031  RH  082%=      5-min Rain = 0
KSW1 171142Z 20005KT 06/03 A2999 RMK A01 T00590031  RH  082%=      5-min Rain = 0
KSW1 171143Z 20005KT 06/03 A2999 RMK A01 T00590032  RH  083%=      5-min Rain = 0
KSW1 171144Z 20005KT 06/03 A30 RMK A01 T00590032  RH  083%=      5-min Rain = 0
KSW1 171145Z 20005KT 06/03 A30 RMK A01 T00590032  RH  083%=      5-min Rain = 0
KSW1 171146Z 21005KT 06/03 A30 RMK A01 T00590032  RH  083%=      5-min Rain = 0
KSW1 171147Z 21005KT 06/03 A30 RMK A01 T00590032  RH  083%=      5-min Rain = 0
KSW1 171148Z 22005KT 06/03 A30 RMK A01 T00600033  RH  083%=      5-min Rain = 0
KSW1 171149Z 23005KT 06/03 A30 RMK A01 T00600032  RH  082%=      5-min Rain = 0
KSW1 171150Z 22005KT 06/03 A30 RMK A01 T00600032  RH  082%=      5-min Rain = 0
KSW1 171151Z 22005KT 06/03 A30 RMK A01 T00590032  RH  082%=      5-min Rain = 0
KSW1 171152Z 22006KT 06/03 A30 RMK A01 T00590031  RH  083%=      5-min Rain = 0
KSW1 171153Z 21006KT 06/03 A30 RMK A01 T00580031  RH  083%=      5-min Rain = 0
KSW1 171154Z 21006KT 06/03 A3001 RMK A01 T00580031  RH  083%=      5-min Rain = 0
KSW1 171155Z 21006KT 06/03 A30 RMK A01 T00580032  RH  083%=      5-min Rain = 0
KSW1 171156Z 21006KT 06/03 A30 RMK A01 T00590032  RH  083%=      5-min Rain = 0
KSW1 171157Z 21006KT 06/03 A3001 RMK A01 T00600032  RH  083%=      5-min Rain = 0
KSW1 171158Z 22006KT 06/03 A3001 RMK A01 T00600032  RH  082%=      5-min Rain = 0
KSW1 171159Z 22005KT 06/03 A3001 RMK A01 T00610032  RH  082%=      5-min Rain = 0
KSW1 171200Z 23006KT 06/03 A3001 RMK A01 T00600031  RH  082%=      5-min Rain = 0
KSW1 171201Z 22006KT 06/03 A3001 RMK A01 T00590031  RH  082%=      5-min Rain = 0
KSW1 171202Z 23006KT 06/03 A3001 RMK A01 T00580031  RH  083%=      5-min Rain = 0
KSW1 171203Z 23005KT 06/03 A3001 RMK A01 T00580031  RH  083%=      5-min Rain = 0
KSW1 171204Z 24005KT 06/03 A3002 RMK A01 T00570031  RH  083%=      5-min Rain = 0
KSW1 171205Z 24005KT 06/03 A3002 RMK A01 T00570031  RH  083%=      5-min Rain = 0
KSW1 171206Z 24005KT 06/03 A3002 RMK A01 T00570031  RH  084%=      5-min Rain = 0
KSW1 171207Z 24005KT 06/03 A3002 RMK A01 T00570031  RH  084%=      5-min Rain = 0
KSW1 171208Z 24004KT 06/03 A3002 RMK A01 T00570031  RH  084%=      5-min Rain = 0
KSW1 171209Z 25004KT 06/03 A3002 RMK A01 T00570031  RH  084%=      5-min Rain = 0
KSW1 171210Z 26004KT 06/03 A3002 RMK A01 T00570032  RH  084%=      5-min Rain = 0
KSW1 171211Z 26004KT 06/03 A3002 RMK A01 T00570032  RH  084%=      5-min Rain = 0
KSW1 171212Z 25004KT 06/03 A3002 RMK A01 T00570032  RH  084%=      5-min Rain = 0
KSW1 171213Z 25004KT 06/03 A3002 RMK A01 T00570032  RH  084%=      5-min Rain = 0
KSW1 171214Z 26004KT 06/03 A3003 RMK A01 T00570032  RH  084%=      5-min Rain = 0
KSW1 171215Z 27005KT 06/03 A3003 RMK A01 T00580032  RH  084%=      5-min Rain = 0
KSW1 171216Z 28006KT 06/03 A3003 RMK A01 T00570032  RH  084%=      5-min Rain = 0
KSW1 171217Z 28006KT 06/03 A3003 RMK A01 T00570031  RH  084%=      5-min Rain = 0
KSW1 171218Z 29006KT 06/03 A3003 RMK A01 T00560031  RH  084%=      5-min Rain = 0
KSW1 171219Z 29006KT 06/03 A3003 RMK A01 T00550031  RH  084%=      5-min Rain = 0
KSW1 171220Z 30006KT 06/03 A3003 RMK A01 T00550030  RH  084%=      5-min Rain = 0
KSW1 171221Z 31006KT 05/03 A3003 RMK A01 T00540031  RH  085%=      5-min Rain = 0
KSW1 171222Z 31006KT 05/03 A3003 RMK A01 T00540030  RH  085%=      5-min Rain = 0
KSW1 171223Z 32006KT 05/03 A3003 RMK A01 T00530030  RH  085%=      5-min Rain = 0
KSW1 171224Z 33007KT 05/03 A3004 RMK A01 T00510029  RH  086%=      5-min Rain = 0
KSW1 171225Z 32007KT 05/03 A3004 RMK A01 T00510029  RH  086%=      5-min Rain = 0
KSW1 171226Z 33007KT 05/03 A3004 RMK A01 T00500028  RH  086%=      5-min Rain = 0
KSW1 171227Z 33007KT 05/03 A3004 RMK A01 T00490028  RH  086%=      5-min Rain = 0
KSW1 171228Z 33007KT 05/03 A3005 RMK A01 T00480027  RH  086%=      5-min Rain = 0
KSW1 171229Z 32007KT 05/02 A3005 RMK A01 T00460024  RH  086%=      5-min Rain = 0
KSW1 171230Z 32006KT 05/03 A3005 RMK A01 T00450025  RH  087%=      5-min Rain = 0
KSW1 171231Z 31006KT 04/03 A3005 RMK A01 T00440025  RH  087%=      5-min Rain = 0
KSW1 171232Z 31005KT 04/03 A3005 RMK A01 T00440025  RH  088%=      5-min Rain = 0
KSW1 171233Z 32005KT 04/03 A3005 RMK A01 T00440025  RH  088%=      5-min Rain = 0
KSW1 171234Z 33005KT 04/03 A3005 RMK A01 T00440026  RH  088%=      5-min Rain = 0
KSW1 171235Z 32005KT 04/03 A3005 RMK A01 T00440025  RH  088%=      5-min Rain = 0
KSW1 171236Z 32005KT 04/03 A3005 RMK A01 T00440025  RH  087%=      5-min Rain = 0
KSW1 171237Z 33005KT 04/02 A3005 RMK A01 T00430024  RH  087%=      5-min Rain = 0
KSW1 171238Z 33006KT 04/02 A3005 RMK A01 T00420023  RH  087%=      5-min Rain = 0
KSW1 171239Z 33006KT 04/02 A3005 RMK A01 T00410022  RH  087%=      5-min Rain = 0
KSW1 171240Z 33006KT 04/02 A3005 RMK A01 T00410023  RH  088%=      5-min Rain = 0
KSW1 171241Z 33005KT 04/02 A3005 RMK A01 T00410024  RH  088%=      5-min Rain = 0
KSW1 171242Z 32005KT 04/02 A3005 RMK A01 T00410024  RH  089%=      5-min Rain = 0
KSW1 171243Z 33005KT 04/03 A3005 RMK A01 T00420026  RH  089%=      5-min Rain = 0
KSW1 171244Z 33004KT 04/03 A3005 RMK A01 T00430027  RH  089%=      5-min Rain = 0
KSW1 171245Z 32004KT 04/03 A3005 RMK A01 T00440026  RH  088%=      5-min Rain = 0
KSW1 171246Z 32004KT 04/03 A3005 RMK A01 T00440026  RH  088%=      5-min Rain = 0
KSW1 171247Z 31004KT 04/03 A3005 RMK A01 T00440026  RH  088%=      5-min Rain = 0
KSW1 171248Z 32005KT 04/03 A3005 RMK A01 T00440025  RH  088%=      5-min Rain = 0
KSW1 171249Z 35006KT 04/03 A3005 RMK A01 T00440025  RH  088%=      5-min Rain = 0
KSW1 171250Z 34006KT 04/03 A3005 RMK A01 T00440025  RH  088%=      5-min Rain = 0
KSW1 171251Z 33005KT 04/03 A3005 RMK A01 T00430025  RH  088%=      5-min Rain = 0
KSW1 171252Z 34006KT 04/02 A3005 RMK A01 T00430024  RH  088%=      5-min Rain = 0
KSW1 171253Z 35006KT 04/02 A3005 RMK A01 T00420024  RH  088%=      5-min Rain = 0
KSW1 171254Z 34006KT 04/02 A3005 RMK A01 T00420024  RH  088%=      5-min Rain = 0
KSW1 171255Z 34006KT 04/02 A3005 RMK A01 T00420024  RH  088%=      5-min Rain = 0
KSW1 171256Z 33005KT 04/02 A3005 RMK A01 T00410024  RH  089%=      5-min Rain = 0
KSW1 171257Z 34006KT 04/02 A3005 RMK A01 T00420024  RH  089%=      5-min Rain = 0
KSW1 171258Z 35007KT 04/02 A3005 RMK A01 T00410024  RH  089%=      5-min Rain = 0
KSW1 171259Z 35008KT 04/03 A3005 RMK A01 T00420025  RH  089%=      5-min Rain = 0
KSW1 171300Z 35008KT 04/03 A3005 RMK A01 T00420025  RH  089%=      5-min Rain = 0
KSW1 171301Z 35008KT 04/03 A3005 RMK A01 T00420025  RH  089%=      5-min Rain = 0
KSW1 171302Z 35009KT 04/03 A3005 RMK A01 T00420025  RH  089%=      5-min Rain = 0
KSW1 171303Z 35009KT 04/03 A3005 RMK A01 T00410025  RH  089%=      5-min Rain = 0
KSW1 171304Z 35009KT 04/03 A3005 RMK A01 T00420025  RH  089%=      5-min Rain = 0
KSW1 171305Z 35009KT 04/03 A3006 RMK A01 T00420025  RH  089%=      5-min Rain = 0
KSW1 171306Z 35009KT 04/03 A3005 RMK A01 T00420025  RH  089%=      5-min Rain = 0
KSW1 171307Z 35009KT 04/03 A3005 RMK A01 T00420026  RH  089%=      5-min Rain = 0
KSW1 171308Z 35009KT 04/03 A3005 RMK A01 T00420026  RH  089%=      5-min Rain = 0
KSW1 171309Z 35009KT 04/03 A3005 RMK A01 T00430027  RH  089%=      5-min Rain = 0
KSW1 171310Z 35009KT 04/03 A3006 RMK A01 T00430027  RH  089%=      5-min Rain = 0
KSW1 171311Z 35009KT 04/03 A3006 RMK A01 T00440027  RH  089%=      5-min Rain = 0
KSW1 171312Z 35010KT 04/03 A3006 RMK A01 T00440027  RH  089%=      5-min Rain = 0
KSW1 171313Z 35009KT 04/03 A3005 RMK A01 T00440027  RH  089%=      5-min Rain = 0
KSW1 171314Z 35010KT 04/03 A3005 RMK A01 T00440027  RH  089%=      5-min Rain = 0
KSW1 171315Z 35009KT 05/03 A3005 RMK A01 T00450027  RH  088%=      5-min Rain = 0
KSW1 171316Z 35009KT 05/03 A3005 RMK A01 T00460028  RH  088%=      5-min Rain = 0
KSW1 171317Z 35009KT 05/03 A3006 RMK A01 T00460028  RH  088%=      5-min Rain = 0
KSW1 171318Z 36009KT 05/03 A3005 RMK A01 T00460027  RH  088%=      5-min Rain = 0
KSW1 171319Z 36009KT 05/03 A3005 RMK A01 T00460027  RH  087%=      5-min Rain = 0
KSW1 171320Z 36008KT 05/03 A3005 RMK A01 T00450026  RH  087%=      5-min Rain = 0
KSW1 171321Z 35007KT 04/03 A3005 RMK A01 T00440025  RH  087%=      5-min Rain = 0
KSW1 171322Z 35008KT 04/03 A3006 RMK A01 T00430025  RH  088%=      5-min Rain = 0
KSW1 171323Z 35008KT 04/03 A3006 RMK A01 T00430025  RH  088%=      5-min Rain = 0
KSW1 171324Z 36007KT 04/02 A3006 RMK A01 T00420024  RH  088%=      5-min Rain = 0
KSW1 171325Z 01007KT 04/02 A3006 RMK A01 T00420024  RH  088%=      5-min Rain = 0
KSW1 171326Z 36007KT 04/03 A3006 RMK A01 T00420025  RH  088%=      5-min Rain = 0
KSW1 171327Z 35007KT 04/03 A3006 RMK A01 T00420025  RH  088%=      5-min Rain = 0
KSW1 171328Z 35007KT 04/02 A3006 RMK A01 T00410024  RH  089%=      5-min Rain = 0
KSW1 171329Z 35007KT 04/03 A3006 RMK A01 T00420025  RH  089%=      5-min Rain = 0
KSW1 171330Z 35007KT 04/03 A3006 RMK A01 T00420025  RH  089%=      5-min Rain = 0
KSW1 171331Z 35007KT 04/03 A3006 RMK A01 T00420025  RH  089%=      5-min Rain = 0
KSW1 171332Z 35007KT 04/03 A3006 RMK A01 T00430026  RH  089%=      5-min Rain = 0
KSW1 171333Z 35007KT 04/03 A3006 RMK A01 T00440026  RH  088%=      5-min Rain = 0
KSW1 171334Z 35007KT 04/03 A3006 RMK A01 T00440026  RH  088%=      5-min Rain = 0
KSW1 171335Z 35006KT 05/03 A3006 RMK A01 T00450027  RH  088%=      5-min Rain = 0
KSW1 171336Z 35006KT 05/03 A3006 RMK A01 T00450027  RH  088%=      5-min Rain = 0
KSW1 171337Z 35006KT 05/03 A3006 RMK A01 T00460028  RH  088%=      5-min Rain = 0
KSW1 171338Z 35005KT 05/03 A3006 RMK A01 T00470028  RH  088%=      5-min Rain = 0
KSW1 171339Z 35006KT 05/03 A3006 RMK A01 T00480029  RH  087%=      5-min Rain = 0
KSW1 171340Z 35007KT 05/03 A3006 RMK A01 T00480029  RH  087%=      5-min Rain = 0
KSW1 171341Z 35006KT 05/03 A3006 RMK A01 T00490030  RH  087%=      5-min Rain = 0
KSW1 171342Z 35006KT 05/03 A3006 RMK A01 T00500030  RH  087%=      5-min Rain = 0
KSW1 171343Z 35006KT 05/03 A3006 RMK A01 T00510030  RH  087%=      5-min Rain = 0
KSW1 171344Z 35006KT 05/03 A3006 RMK A01 T00520031  RH  086%=      5-min Rain = 0
KSW1 171345Z 35005KT 05/03 A3006 RMK A01 T00530032  RH  086%=      5-min Rain = 0
KSW1 171346Z 35006KT 05/03 A3006 RMK A01 T00540033  RH  086%=      5-min Rain = 0
KSW1 171347Z 35006KT 06/03 A3006 RMK A01 T00550033  RH  085%=      5-min Rain = 0
KSW1 171348Z 35005KT 06/03 A3007 RMK A01 T00560032  RH  085%=      5-min Rain = 0
KSW1 171349Z 35006KT 06/03 A3007 RMK A01 T00570032  RH  084%=      5-min Rain = 0
KSW1 171350Z 35006KT 06/03 A3007 RMK A01 T00570032  RH  084%=      5-min Rain = 0
KSW1 171351Z 36005KT 06/03 A3007 RMK A01 T00570032  RH  084%=      5-min Rain = 0
KSW1 171352Z 00005KT 06/03 A3007 RMK A01 T00580033  RH  084%=      5-min Rain = 0
KSW1 171353Z 00006KT 06/03 A3007 RMK A01 T00580032  RH  084%=      5-min Rain = 0
KSW1 171354Z 00005KT 06/03 A3007 RMK A01 T00590032  RH  083%=      5-min Rain = 0
KSW1 171355Z 00005KT 06/03 A3007 RMK A01 T00590033  RH  083%=      5-min Rain = 0
KSW1 171356Z 00005KT 06/03 A3007 RMK A01 T00590033  RH  083%=      5-min Rain = 0
KSW1 171357Z 00006KT 06/03 A3007 RMK A01 T00600034  RH  083%=      5-min Rain = 0
KSW1 171358Z 36006KT 06/03 A3007 RMK A01 T00610034  RH  083%=      5-min Rain = 0
KSW1 171359Z 00006KT 06/03 A3007 RMK A01 T00610034  RH  083%=      5-min Rain = 0
KSW1 171400Z 00006KT 06/03 A3007 RMK A01 T00600034  RH  083%=      5-min Rain = 0
KSW1 171401Z 00006KT 06/04 A3007 RMK A01 T00610035  RH  083%=      5-min Rain = 0
KSW1 171402Z 00006KT 06/04 A3007 RMK A01 T00610035  RH  083%=      5-min Rain = 0
KSW1 171403Z 00005KT 06/03 A3007 RMK A01 T00610034  RH  083%=      5-min Rain = 0
KSW1 171404Z 00006KT 06/04 A3007 RMK A01 T00620035  RH  083%=      5-min Rain = 0
KSW1 171405Z 00005KT 06/04 A3007 RMK A01 T00620036  RH  083%=      5-min Rain = 0
KSW1 171406Z 00005KT 06/04 A3007 RMK A01 T00620036  RH  084%=      5-min Rain = 0
KSW1 171407Z 36005KT 06/04 A3007 RMK A01 T00630037  RH  084%=      5-min Rain = 0
KSW1 171408Z 36005KT 06/04 A3008 RMK A01 T00630038  RH  084%=      5-min Rain = 0
KSW1 171409Z 35006KT 06/04 A3008 RMK A01 T00640039  RH  084%=      5-min Rain = 0
KSW1 171410Z 35006KT 07/04 A3008 RMK A01 T00650039  RH  084%=      5-min Rain = 0
KSW1 171411Z 34007KT 07/04 A3008 RMK A01 T00660039  RH  083%=      5-min Rain = 0
KSW1 171412Z 35005KT 07/04 A3008 RMK A01 T00660039  RH  083%=      5-min Rain = 0
KSW1 171413Z 35007KT 07/04 A3008 RMK A01 T00670040  RH  083%=      5-min Rain = 0
KSW1 171414Z 35008KT 07/04 A3008 RMK A01 T00670039  RH  082%=      5-min Rain = 0
KSW1 171415Z 35009KT 07/04 A3008 RMK A01 T00680039  RH  082%=      5-min Rain = 0
KSW1 171416Z 35008KT 07/04 A3008 RMK A01 T00680038  RH  081%=      5-min Rain = 0
KSW1 171417Z 35008KT 07/04 A3008 RMK A01 T00690039  RH  081%=      5-min Rain = 0
KSW1 171418Z 36008KT 07/04 A3008 RMK A01 T00690038  RH  081%=      5-min Rain = 0
KSW1 171419Z 35007KT 07/04 A3008 RMK A01 T00680039  RH  082%=      5-min Rain = 0
KSW1 171420Z 35009KT 07/04 A3008 RMK A01 T00680039  RH  082%=      5-min Rain = 0
KSW1 171421Z 35007KT 07/04 A3008 RMK A01 T00680039  RH  082%=      5-min Rain = 0
KSW1 171422Z 36008KT 07/04 A3009 RMK A01 T00690040  RH  082%=      5-min Rain = 0
KSW1 171423Z 36007KT 07/04 A3009 RMK A01 T00690040  RH  082%=      5-min Rain = 0
KSW1 171424Z 00009KT 07/04 A3009 RMK A01 T00700041  RH  082%=      5-min Rain = 0
KSW1 171425Z 36010G17KT 07/04 A3009 RMK A01 T00700040  RH  081%=      5-min Rain = 0
KSW1 171426Z 00012G17KT 07/04 A3009 RMK A01 T00720038  RH  079%=      5-min Rain = 0
KSW1 171427Z 01016G21KT 07/04 A3009 RMK A01 T00730035  RH  077%=      5-min Rain = 0
KSW1 171428Z 01013KT 08/03 A3009 RMK A01 T00750032  RH  074%=      5-min Rain = 0
KSW1 171429Z 01014KT 08/03 A3009 RMK A01 T00770032  RH  073%=      5-min Rain = 0
KSW1 171430Z 01015KT 08/03 A3009 RMK A01 T00780029  RH  071%=      5-min Rain = 0
KSW1 171431Z 01015G20KT 08/03 A3009 RMK A01 T00790029  RH  070%=      5-min Rain = 0
KSW1 171432Z 01015KT 08/03 A3009 RMK A01 T00800029  RH  070%=      5-min Rain = 0
KSW1 171433Z 01014KT 08/03 A3009 RMK A01 T00800029  RH  070%=      5-min Rain = 0
KSW1 171434Z 00014KT 08/03 A3009 RMK A01 T00800030  RH  071%=      5-min Rain = 0
KSW1 171435Z 00015KT 08/03 A3009 RMK A01 T00800030  RH  070%=      5-min Rain = 0
KSW1 171436Z 01013G19KT 08/03 A3009 RMK A01 T00800029  RH  070%=      5-min Rain = 0
KSW1 171437Z 00016KT 08/03 A3009 RMK A01 T00810030  RH  070%=      5-min Rain = 0
KSW1 171438Z 01018G23KT 08/03 A3009 RMK A01 T00810029  RH  070%=      5-min Rain = 0
KSW1 171439Z 01017KT 08/03 A3009 RMK A01 T00810028  RH  069%=      5-min Rain = 0
KSW1 171440Z 00013KT 08/03 A3009 RMK A01 T00810029  RH  070%=      5-min Rain = 0
KSW1 171441Z 01015KT 08/03 A3009 RMK A01 T00810030  RH  070%=      5-min Rain = 0
KSW1 171442Z 01018KT 08/03 A301 RMK A01 T00820029  RH  069%=      5-min Rain = 0
KSW1 171443Z 00020G26KT 08/03 A3009 RMK A01 T00820029  RH  069%=      5-min Rain = 0
KSW1 171444Z 01017KT 08/03 A3009 RMK A01 T00820028  RH  069%=      5-min Rain = 0
KSW1 171445Z 01014G19KT 08/03 A3009 RMK A01 T00820029  RH  069%=      5-min Rain = 0
KSW1 171446Z 01016KT 08/03 A301 RMK A01 T00820030  RH  070%=      5-min Rain = 0
KSW1 171447Z 01014KT 08/03 A3009 RMK A01 T00830029  RH  069%=      5-min Rain = 0
KSW1 171448Z 02016KT 08/03 A3009 RMK A01 T00830030  RH  069%=      5-min Rain = 0
KSW1 171449Z 02018KT 08/03 A3009 RMK A01 T00840029  RH  068%=      5-min Rain = 0
KSW1 171450Z 01018KT 08/03 A3009 RMK A01 T00840028  RH  068%=      5-min Rain = 0
KSW1 171451Z 02019KT 08/03 A3009 RMK A01 T00840027  RH  067%=      5-min Rain = 0
KSW1 171452Z 02017G22KT 08/03 A3009 RMK A01 T00840028  RH  067%=      5-min Rain = 0
KSW1 171453Z 02018G24KT 09/03 A3009 RMK A01 T00850028  RH  067%=      5-min Rain = 0
KSW1 171454Z 01019KT 09/03 A3009 RMK A01 T00860027  RH  067%=      5-min Rain = 0
KSW1 171455Z 02017G22KT 09/03 A3009 RMK A01 T00860027  RH  066%=      5-min Rain = 0
KSW1 171456Z 02020KT 09/03 A3009 RMK A01 T00860028  RH  067%=      5-min Rain = 0
KSW1 171457Z 01019G26KT 09/03 A3009 RMK A01 T00870026  RH  066%=      5-min Rain = 0
KSW1 171458Z 01019KT 09/03 A3009 RMK A01 T00870026  RH  065%=      5-min Rain = 0
KSW1 171459Z 01020KT 09/03 A3009 RMK A01 T00870026  RH  066%=      5-min Rain = 0
KSW1 171500Z 02020G27KT 09/03 A3009 RMK A01 T00870025  RH  065%=      5-min Rain = 0
KSW1 171501Z 02023KT 09/03 A3009 RMK A01 T00870025  RH  065%=      5-min Rain = 0
KSW1 171502Z 02020G27KT 09/02 A3009 RMK A01 T00870024  RH  064%=      5-min Rain = 0
KSW1 171503Z 02024G29KT 09/03 A3009 RMK A01 T00870025  RH  065%=      5-min Rain = 0
KSW1 171504Z 02022KT 09/02 A3009 RMK A01 T00880023  RH  064%=      5-min Rain = 0
KSW1 171505Z 02023G28KT 09/02 A3009 RMK A01 T00880024  RH  064%=      5-min Rain = 0
KSW1 171506Z 02025KT 09/02 A3009 RMK A01 T00880023  RH  063%=      5-min Rain = 0
KSW1 171507Z 01019G26KT 09/02 A3009 RMK A01 T00880022  RH  063%=      5-min Rain = 0
KSW1 171508Z 01020KT 09/02 A3009 RMK A01 T00880024  RH  064%=      5-min Rain = 0
KSW1 171509Z 02017G22KT 09/02 A3009 RMK A01 T00890024  RH  064%=      5-min Rain = 0
KSW1 171510Z 02023KT 09/03 A3009 RMK A01 T00910025  RH  063%=      5-min Rain = 0
KSW1 171511Z 02023G29KT 09/02 A3009 RMK A01 T00910024  RH  063%=      5-min Rain = 0
KSW1 171512Z 02020G25KT 09/02 A3009 RMK A01 T00910024  RH  063%=      5-min Rain = 0
KSW1 171513Z 02021G26KT 09/02 A3009 RMK A01 T00910023  RH  063%=      5-min Rain = 0
KSW1 171514Z 02019KT 09/02 A3009 RMK A01 T00910024  RH  063%=      5-min Rain = 0
KSW1 171515Z 02017KT 09/03 A3009 RMK A01 T00920025  RH  063%=      5-min Rain = 0
KSW1 171516Z 02016G22KT 09/03 A3009 RMK A01 T00940027  RH  063%=      5-min Rain = 0
KSW1 171517Z 02021KT 10/03 A3009 RMK A01 T00950026  RH  062%=      5-min Rain = 0
KSW1 171518Z 02018KT 10/03 A3009 RMK A01 T00950025  RH  062%=      5-min Rain = 0
KSW1 171519Z 02021G26KT 10/03 A3009 RMK A01 T00950025  RH  062%=      5-min Rain = 0
KSW1 171520Z 02018KT 10/02 A3009 RMK A01 T00950024  RH  061%=      5-min Rain = 0
KSW1 171521Z 02018G23KT 10/03 A3009 RMK A01 T00950026  RH  062%=      5-min Rain = 0
KSW1 171522Z 02019KT 10/03 A3009 RMK A01 T00960026  RH  062%=      5-min Rain = 0
KSW1 171523Z 02017G24KT 10/03 A3009 RMK A01 T00970026  RH  061%=      5-min Rain = 0
KSW1 171524Z 01020KT 10/03 A3009 RMK A01 T00970025  RH  061%=      5-min Rain = 0
KSW1 171525Z 01020KT 10/02 A3009 RMK A01 T00970024  RH  060%=      5-min Rain = 0
KSW1 171526Z 01020G26KT 10/02 A3009 RMK A01 T00960023  RH  060%=      5-min Rain = 0
KSW1 171527Z 01020G26KT 10/02 A3009 RMK A01 T00950023  RH  060%=      5-min Rain = 0
KSW1 171528Z 01020KT 10/02 A3009 RMK A01 T00950023  RH  061%=      5-min Rain = 0
KSW1 171529Z 01021G26KT 10/02 A301 RMK A01 T00960023  RH  060%=      5-min Rain = 0
KSW1 171530Z 01018G23KT 10/03 A301 RMK A01 T00960025  RH  061%=      5-min Rain = 0
KSW1 171531Z 02018G24KT 10/03 A301 RMK A01 T00970025  RH  060%=      5-min Rain = 0
KSW1 171532Z 01019G25KT 10/03 A301 RMK A01 T00990026  RH  060%=      5-min Rain = 0
KSW1 171533Z 01021G26KT 10/02 A301 RMK A01 T01000024  RH  059%=      5-min Rain = 0
KSW1 171534Z 01021G26KT 10/02 A301 RMK A01 T00990024  RH  060%=      5-min Rain = 0
KSW1 171535Z 01023G29KT 10/02 A301 RMK A01 T00990023  RH  059%=      5-min Rain = 0
KSW1 171536Z 01021G26KT 10/02 A301 RMK A01 T00980023  RH  059%=      5-min Rain = 0
KSW1 171537Z 01017G22KT 10/02 A301 RMK A01 T00980024  RH  060%=      5-min Rain = 0
KSW1 171538Z 02019G26KT 10/03 A301 RMK A01 T01000027  RH  060%=      5-min Rain = 0
KSW1 171539Z 01017G24KT 10/03 A301 RMK A01 T01020026  RH  059%=      5-min Rain = 0
KSW1 171540Z 01022G27KT 10/03 A301 RMK A01 T01020025  RH  059%=      5-min Rain = 0
KSW1 171541Z 01023KT 10/02 A301 RMK A01 T01020023  RH  058%=      5-min Rain = 0
KSW1 171542Z 01022G27KT 10/02 A301 RMK A01 T01010023  RH  058%=      5-min Rain = 0
KSW1 171543Z 02022KT 10/02 A301 RMK A01 T01010023  RH  059%=      5-min Rain = 0
KSW1 171544Z 02024KT 10/02 A301 RMK A01 T01010023  RH  058%=      5-min Rain = 0
KSW1 171545Z 01021G27KT 10/02 A301 RMK A01 T01010023  RH  059%=      5-min Rain = 0
KSW1 171546Z 01022KT 10/02 A301 RMK A01 T01020024  RH  058%=      5-min Rain = 0
KSW1 171547Z 01020G25KT 10/02 A301 RMK A01 T01030024  RH  058%=      5-min Rain = 0
KSW1 171548Z 01021G26KT 10/03 A301 RMK A01 T01030025  RH  058%=      5-min Rain = 0
KSW1 171549Z 02021KT 10/02 A301 RMK A01 T01040024  RH  058%=      5-min Rain = 0
KSW1 171550Z 02019G24KT 10/03 A301 RMK A01 T01040025  RH  058%=      5-min Rain = 0
KSW1 171551Z 02016G22KT 11/03 A301 RMK A01 T01060027  RH  058%=      5-min Rain = 0
KSW1 171552Z 02019G27KT 11/03 A301 RMK A01 T01080028  RH  058%=      5-min Rain = 0
KSW1 171553Z 02023G28KT 11/02 A301 RMK A01 T01080024  RH  056%=      5-min Rain = 0
KSW1 171554Z 02022G27KT 11/02 A301 RMK A01 T01070024  RH  057%=      5-min Rain = 0
KSW1 171555Z 01024KT 11/02 A301 RMK A01 T01060023  RH  057%=      5-min Rain = 0
KSW1 171556Z 02021G26KT 11/02 A301 RMK A01 T01060023  RH  057%=      5-min Rain = 0
KSW1 171557Z 02018G23KT 11/03 A301 RMK A01 T01070026  RH  057%=      5-min Rain = 0
KSW1 171558Z 02022KT 11/03 A301 RMK A01 T01090025  RH  056%=      5-min Rain = 0
KSW1 171559Z 03021KT 11/03 A301 RMK A01 T01090025  RH  056%=      5-min Rain = 0
KSW1 171600Z 02020G25KT 11/02 A301 RMK A01 T01090024  RH  056%=      5-min Rain = 0
KSW1 171601Z 02019G25KT 11/03 A301 RMK A01 T01090026  RH  056%=      5-min Rain = 0
KSW1 171602Z 02023KT 11/03 A301 RMK A01 T01110026  RH  056%=      5-min Rain = 0
KSW1 171603Z 02022KT 11/02 A301 RMK A01 T01110024  RH  055%=      5-min Rain = 0
KSW1 171604Z 02022G27KT 11/03 A301 RMK A01 T01110025  RH  055%=      5-min Rain = 0
KSW1 171605Z 02021KT 11/02 A301 RMK A01 T01110024  RH  055%=      5-min Rain = 0
KSW1 171606Z 02018KT 11/03 A301 RMK A01 T01110025  RH  055%=      5-min Rain = 0
KSW1 171607Z 01021KT 11/03 A301 RMK A01 T01130025  RH  055%=      5-min Rain = 0
KSW1 171608Z 02019KT 11/03 A301 RMK A01 T01130025  RH  055%=      5-min Rain = 0
KSW1 171609Z 02021KT 11/03 A301 RMK A01 T01140025  RH  054%=      5-min Rain = 0
KSW1 171610Z 01018G23KT 11/03 A301 RMK A01 T01140026  RH  055%=      5-min Rain = 0
KSW1 171611Z 02019KT 12/03 A301 RMK A01 T01160026  RH  054%=      5-min Rain = 0
KSW1 171612Z 02020G25KT 12/03 A301 RMK A01 T01170027  RH  054%=      5-min Rain = 0
KSW1 171613Z 02017G22KT 12/03 A301 RMK A01 T01180027  RH  054%=      5-min Rain = 0
KSW1 171614Z 01021G26KT 12/03 A301 RMK A01 T01180026  RH  053%=      5-min Rain = 0
KSW1 171615Z 02023KT 12/02 A301 RMK A01 T01170024  RH  053%=      5-min Rain = 0
KSW1 171616Z 02017G22KT 12/02 A301 RMK A01 T01150024  RH  054%=      5-min Rain = 0
KSW1 171617Z 02020KT 12/03 A301 RMK A01 T01180027  RH  054%=      5-min Rain = 0
KSW1 171618Z 02018G23KT 12/03 A301 RMK A01 T01190026  RH  053%=      5-min Rain = 0
KSW1 171619Z 02018G24KT 12/03 A301 RMK A01 T01200026  RH  052%=      5-min Rain = 0
KSW1 171620Z 02021KT 12/03 A301 RMK A01 T01210026  RH  052%=      5-min Rain = 0
KSW1 171621Z 03023KT 12/02 A301 RMK A01 T01210024  RH  052%=      5-min Rain = 0
KSW1 171622Z 02022KT 12/02 A301 RMK A01 T01190023  RH  052%=      5-min Rain = 0
KSW1 171623Z 03020G29KT 12/02 A301 RMK A01 T01180024  RH  052%=      5-min Rain = 0
KSW1 171624Z 03025KT 12/02 A301 RMK A01 T01190023  RH  052%=      5-min Rain = 0
KSW1 171625Z 03023G28KT 12/02 A3011 RMK A01 T01180023  RH  052%=      5-min Rain = 0
KSW1 171626Z 02022G29KT 12/02 A301 RMK A01 T01170023  RH  053%=      5-min Rain = 0
KSW1 171627Z 03023G29KT 12/02 A3011 RMK A01 T01180023  RH  052%=      5-min Rain = 0
KSW1 171628Z 03022G28KT 12/02 A3011 RMK A01 T01190024  RH  052%=      5-min Rain = 0
KSW1 171629Z 03023G29KT 12/02 A3011 RMK A01 T01190023  RH  052%=      5-min Rain = 0
KSW1 171630Z 02023KT 12/02 A3011 RMK A01 T01190023  RH  052%=      5-min Rain = 0
KSW1 171631Z 02021G26KT 12/02 A3011 RMK A01 T01190024  RH  052%=      5-min Rain = 0
KSW1 171632Z 02022KT 12/02 A3011 RMK A01 T01200024  RH  052%=      5-min Rain = 0
KSW1 171633Z 02025KT 12/02 A3011 RMK A01 T01200023  RH  051%=      5-min Rain = 0
KSW1 171634Z 02020G25KT 12/02 A3011 RMK A01 T01190024  RH  052%=      5-min Rain = 0
KSW1 171635Z 02021G26KT 12/03 A3011 RMK A01 T01200025  RH  052%=      5-min Rain = 0
KSW1 171636Z 02022G27KT 12/02 A3011 RMK A01 T01210024  RH  052%=      5-min Rain = 0
KSW1 171637Z 02021G26KT 12/02 A3011 RMK A01 T01200024  RH  052%=      5-min Rain = 0
KSW1 171638Z 02023KT 12/03 A3011 RMK A01 T01210025  RH  052%=      5-min Rain = 0
KSW1 171639Z 02021G26KT 12/03 A3011 RMK A01 T01220025  RH  052%=      5-min Rain = 0
KSW1 171640Z 02018G23KT 12/03 A3011 RMK A01 T01220026  RH  052%=      5-min Rain = 0
KSW1 171641Z 03020G25KT 13/03 A3011 RMK A01 T01250028  RH  051%=      5-min Rain = 0
KSW1 171642Z 03017KT 13/03 A3011 RMK A01 T01260026  RH  051%=      5-min Rain = 0
KSW1 171643Z 02019G25KT 13/03 A3011 RMK A01 T01270026  RH  050%=      5-min Rain = 0
KSW1 171644Z 02018G24KT 13/02 A3011 RMK A01 T01250024  RH  050%=      5-min Rain = 0
KSW1 171645Z 02019KT 12/03 A3011 RMK A01 T01240025  RH  051%=      5-min Rain = 0
KSW1 171646Z 01016G23KT 12/03 A3011 RMK A01 T01240026  RH  051%=      5-min Rain = 0
KSW1 171647Z 01016G21KT 13/03 A3011 RMK A01 T01250027  RH  051%=      5-min Rain = 0
KSW1 171648Z 02020KT 13/03 A3011 RMK A01 T01270027  RH  051%=      5-min Rain = 0
KSW1 171649Z 02020G27KT 13/03 A3011 RMK A01 T01270027  RH  050%=      5-min Rain = 0
KSW1 171650Z 03022KT 13/02 A3011 RMK A01 T01260024  RH  050%=      5-min Rain = 0
KSW1 171651Z 04019G24KT 13/03 A3011 RMK A01 T01250025  RH  051%=      5-min Rain = 0
KSW1 171652Z 03020G25KT 13/03 A3011 RMK A01 T01260025  RH  050%=      5-min Rain = 0
KSW1 171653Z 03017KT 13/03 A3011 RMK A01 T01260025  RH  050%=      5-min Rain = 0
KSW1 171654Z 03016G21KT 13/03 A3011 RMK A01 T01270027  RH  051%=      5-min Rain = 0
KSW1 171655Z 02020KT 13/03 A3011 RMK A01 T01290028  RH  050%=      5-min Rain = 0
KSW1 171656Z 03021G26KT 13/03 A3011 RMK A01 T01280025  RH  049%=      5-min Rain = 0
KSW1 171657Z 03019KT 13/03 A3011 RMK A01 T01270025  RH  050%=      5-min Rain = 0
KSW1 171658Z 03019KT 13/03 A3011 RMK A01 T01270026  RH  050%=      5-min Rain = 0
KSW1 171659Z 02016KT 13/03 A3011 RMK A01 T01270026  RH  050%=      5-min Rain = 0
KSW1 171700Z 02019G24KT 13/03 A3011 RMK A01 T01300027  RH  050%=      5-min Rain = 0
KSW1 171701Z 01022KT 13/03 A3011 RMK A01 T01290025  RH  049%=      5-min Rain = 0
KSW1 171702Z 02022KT 13/03 A3011 RMK A01 T01270025  RH  050%=      5-min Rain = 0
KSW1 171703Z 02018G23KT 13/03 A3011 RMK A01 T01270026  RH  050%=      5-min Rain = 0
KSW1 171704Z 01019KT 13/03 A3011 RMK A01 T01270026  RH  050%=      5-min Rain = 0
KSW1 171705Z 02021G27KT 13/03 A3011 RMK A01 T01280027  RH  050%=      5-min Rain = 0
KSW1 171706Z 03022KT 13/03 A3011 RMK A01 T01280025  RH  049%=      5-min Rain = 0
KSW1 171707Z 03019KT 13/03 A3011 RMK A01 T01270025  RH  050%=      5-min Rain = 0
KSW1 171708Z 02019KT 13/03 A3011 RMK A01 T01270025  RH  050%=      5-min Rain = 0
KSW1 171709Z 02021G26KT 13/03 A3011 RMK A01 T01270025  RH  050%=      5-min Rain = 0
KSW1 171710Z 01015G21KT 13/03 A3011 RMK A01 T01280026  RH  050%=      5-min Rain = 0
KSW1 171711Z 02020G25KT 13/03 A3011 RMK A01 T01300027  RH  050%=      5-min Rain = 0
KSW1 171712Z 03018G23KT 13/03 A3012 RMK A01 T01300025  RH  049%=      5-min Rain = 0
KSW1 171713Z 02019KT 13/03 A3012 RMK A01 T01300027  RH  049%=      5-min Rain = 0
KSW1 171714Z 02015G20KT 13/03 A3012 RMK A01 T01300028  RH  050%=      5-min Rain = 0
KSW1 171715Z 02017G22KT 13/03 A3012 RMK A01 T01320027  RH  049%=      5-min Rain = 0
KSW1 171716Z 01016G21KT 13/03 A3012 RMK A01 T01320027  RH  049%=      5-min Rain = 0
KSW1 171717Z 02016KT 13/03 A3012 RMK A01 T01330029  RH  049%=      5-min Rain = 0
KSW1 171718Z 03018G24KT 14/03 A3012 RMK A01 T01360030  RH  049%=      5-min Rain = 0
KSW1 171719Z 04020KT 14/03 A3012 RMK A01 T01360026  RH  047%=      5-min Rain = 0
KSW1 171720Z 03016KT 13/02 A3012 RMK A01 T01320024  RH  048%=      5-min Rain = 0
KSW1 171721Z 04020G25KT 13/03 A3013 RMK A01 T01320025  RH  048%=      5-min Rain = 0
KSW1 171722Z 03016G25KT 13/03 A3012 RMK A01 T01310025  RH  049%=      5-min Rain = 0
KSW1 171723Z 03019KT 13/03 A3012 RMK A01 T01310026  RH  049%=      5-min Rain = 0
KSW1 171724Z 03015G20KT 13/03 A3012 RMK A01 T01320026  RH  049%=      5-min Rain = 0
KSW1 171725Z 03015KT 13/03 A3012 RMK A01 T01330028  RH  049%=      5-min Rain = 0
KSW1 171726Z 02015KT 13/03 A3012 RMK A01 T01340026  RH  048%=      5-min Rain = 0
KSW1 171727Z 02015G20KT 13/03 A3012 RMK A01 T01340027  RH  048%=      5-min Rain = 0
KSW1 171728Z 02016KT 14/03 A3012 RMK A01 T01350028  RH  048%=      5-min Rain = 0
KSW1 171729Z 01016G21KT 14/03 A3012 RMK A01 T01360028  RH  048%=      5-min Rain = 0
KSW1 171730Z 02015KT 14/03 A3012 RMK A01 T01360026  RH  047%=      5-min Rain = 0
KSW1 171731Z 01012KT 13/03 A3012 RMK A01 T01340027  RH  048%=      5-min Rain = 0
KSW1 171732Z 01018KT 14/03 A3012 RMK A01 T01350027  RH  048%=      5-min Rain = 0
KSW1 171733Z 02017KT 13/03 A3012 RMK A01 T01340026  RH  048%=      5-min Rain = 0
KSW1 171734Z 02015KT 13/03 A3012 RMK A01 T01330027  RH  048%=      5-min Rain = 0
KSW1 171735Z 01015G20KT 14/03 A3012 RMK A01 T01350028  RH  048%=      5-min Rain = 0
KSW1 171736Z 01015G21KT 14/03 A3012 RMK A01 T01360027  RH  048%=      5-min Rain = 0
KSW1 171737Z 01017G23KT 14/03 A3012 RMK A01 T01360027  RH  048%=      5-min Rain = 0
KSW1 171738Z 03012KT 14/03 A3012 RMK A01 T01370030  RH  048%=      5-min Rain = 0
KSW1 171739Z 02013KT 14/03 A3012 RMK A01 T01410030  RH  047%=      5-min Rain = 0
KSW1 171740Z 02014G20KT 14/03 A3012 RMK A01 T01420030  RH  047%=      5-min Rain = 0
KSW1 171741Z 02020KT 14/03 A3013 RMK A01 T01410027  RH  046%=      5-min Rain = 0
KSW1 171742Z 02016KT 14/03 A3013 RMK A01 T01370025  RH  047%=      5-min Rain = 0
KSW1 171743Z 03016KT 14/03 A3013 RMK A01 T01350026  RH  048%=      5-min Rain = 0
KSW1 171744Z 03012KT 14/03 A3012 RMK A01 T01350026  RH  048%=      5-min Rain = 0
KSW1 171745Z 03016G21KT 14/03 A3012 RMK A01 T01360028  RH  048%=      5-min Rain = 0
KSW1 171746Z 03017KT 14/03 A3012 RMK A01 T01370026  RH  047%=      5-min Rain = 0
KSW1 171747Z 01016G21KT 14/03 A3012 RMK A01 T01370027  RH  047%=      5-min Rain = 0
KSW1 171748Z 02017KT 14/03 A3012 RMK A01 T01370026  RH  047%=      5-min Rain = 0
KSW1 171749Z 02014KT 14/03 A3012 RMK A01 T01360026  RH  047%=      5-min Rain = 0
KSW1 171750Z 02014KT 14/03 A3012 RMK A01 T01380028  RH  047%=      5-min Rain = 0
KSW1 171751Z 02012KT 14/03 A3012 RMK A01 T01400029  RH  047%=      5-min Rain = 0
KSW1 171752Z 01015G20KT 14/03 A3012 RMK A01 T01410028  RH  047%=      5-min Rain = 0
KSW1 171753Z 02014KT 14/03 A3012 RMK A01 T01400027  RH  046%=      5-min Rain = 0
KSW1 171754Z 01014KT 14/03 A3012 RMK A01 T01400030  RH  047%=      5-min Rain = 0
KSW1 171755Z 01016KT 14/03 A3012 RMK A01 T01430029  RH  046%=      5-min Rain = 0
KSW1 171756Z 02012KT 14/03 A3012 RMK A01 T01440029  RH  046%=      5-min Rain = 0
KSW1 171757Z 02011KT 14/03 A3012 RMK A01 T01440029  RH  046%=      5-min Rain = 0
KSW1 171758Z 00017KT 15/03 A3012 RMK A01 T01450029  RH  045%=      5-min Rain = 0
KSW1 171759Z 01014KT 14/03 A3012 RMK A01 T01440028  RH  045%=      5-min Rain = 0
KSW1 171800Z 02013KT 14/03 A3012 RMK A01 T01440028  RH  045%=      5-min Rain = 0
KSW1 171801Z 02014KT 14/03 A3012 RMK A01 T01430028  RH  046%=      5-min Rain = 0
KSW1 171802Z 02012KT 15/03 A3012 RMK A01 T01450030  RH  046%=      5-min Rain = 0
KSW1 171803Z 02014G19KT 15/03 A3012 RMK A01 T01480030  RH  045%=      5-min Rain = 0
KSW1 171804Z 01012KT 15/03 A3012 RMK A01 T01480029  RH  045%=      5-min Rain = 0
KSW1 171805Z 01012KT 15/03 A3012 RMK A01 T01460030  RH  046%=      5-min Rain = 0
KSW1 171806Z 02012KT 15/03 A3012 RMK A01 T01470028  RH  045%=      5-min Rain = 0
KSW1 171807Z 01012KT 15/03 A3012 RMK A01 T01460028  RH  045%=      5-min Rain = 0
KSW1 171808Z 02016KT 15/03 A3012 RMK A01 T01460028  RH  045%=      5-min Rain = 0
KSW1 171809Z 02014KT 15/03 A3012 RMK A01 T01460029  RH  045%=      5-min Rain = 0
KSW1 171810Z 01014KT 15/03 A3011 RMK A01 T01480030  RH  045%=      5-min Rain = 0
KSW1 171811Z 01017KT 15/03 A3011 RMK A01 T01480029  RH  045%=      5-min Rain = 0
KSW1 171812Z 01014KT 15/03 A3011 RMK A01 T01470029  RH  045%=      5-min Rain = 0
KSW1 171813Z 00015KT 15/03 A3011 RMK A01 T01470028  RH  045%=      5-min Rain = 0
KSW1 171814Z 01014G21KT 15/03 A3011 RMK A01 T01470029  RH  045%=      5-min Rain = 0
KSW1 171815Z 01017KT 15/03 A3011 RMK A01 T01480029  RH  045%=      5-min Rain = 0
KSW1 171816Z 02014KT 15/03 A3011 RMK A01 T01480028  RH  045%=      5-min Rain = 0
KSW1 171817Z 02015KT 15/03 A3011 RMK A01 T01490029  RH  044%=      5-min Rain = 0
KSW1 171818Z 00014KT 15/03 A3011 RMK A01 T01490029  RH  045%=      5-min Rain = 0
KSW1 171819Z 00012KT 15/03 A3011 RMK A01 T01500029  RH  044%=      5-min Rain = 0
KSW1 171820Z 01011G17KT 15/03 A3012 RMK A01 T01490030  RH  045%=      5-min Rain = 0
KSW1 171821Z 00012KT 15/03 A3011 RMK A01 T01510029  RH  044%=      5-min Rain = 0
KSW1 171822Z 00012KT 15/03 A3011 RMK A01 T01490029  RH  044%=      5-min Rain = 0
KSW1 171823Z 00015KT 15/03 A3011 RMK A01 T01500029  RH  044%=      5-min Rain = 0
KSW1 171824Z 02013KT 15/03 A3011 RMK A01 T01490029  RH  044%=      5-min Rain = 0
KSW1 171825Z 01013KT 15/03 A3011 RMK A01 T01490029  RH  044%=      5-min Rain = 0
KSW1 171826Z 02013KT 15/03 A3011 RMK A01 T01500030  RH  044%=      5-min Rain = 0
KSW1 171827Z 02015KT 15/03 A3011 RMK A01 T01500028  RH  044%=      5-min Rain = 0
KSW1 171828Z 01010KT 15/03 A3011 RMK A01 T01480027  RH  044%=      5-min Rain = 0
KSW1 171829Z 36013G19KT 15/03 A3011 RMK A01 T01470028  RH  045%=      5-min Rain = 0
KSW1 171830Z 00017KT 15/03 A3011 RMK A01 T01490028  RH  044%=      5-min Rain = 0
KSW1 171831Z 00012KT 15/03 A301 RMK A01 T01480026  RH  044%=      5-min Rain = 0
KSW1 171832Z 36014G19KT 15/03 A301 RMK A01 T01470028  RH  045%=      5-min Rain = 0
KSW1 171833Z 01014G19KT 15/03 A301 RMK A01 T01500031  RH  045%=      5-min Rain = 0
KSW1 171834Z 01014KT 15/03 A301 RMK A01 T01520028  RH  044%=      5-min Rain = 0
KSW1 171835Z 02014KT 15/03 A301 RMK A01 T01510029  RH  044%=      5-min Rain = 0
KSW1 171836Z 02012KT 15/03 A301 RMK A01 T01510027  RH  043%=      5-min Rain = 0
KSW1 171837Z 00013KT 15/03 A301 RMK A01 T01500029  RH  044%=      5-min Rain = 0
KSW1 171838Z 00013KT 15/03 A301 RMK A01 T01510029  RH  044%=      5-min Rain = 0
KSW1 171839Z 36013G18KT 15/03 A301 RMK A01 T01510027  RH  043%=      5-min Rain = 0
KSW1 171840Z 00011G16KT 15/03 A301 RMK A01 T01500029  RH  044%=      5-min Rain = 0
KSW1 171841Z 00011KT 15/03 A301 RMK A01 T01510029  RH  044%=      5-min Rain = 0
KSW1 171842Z 02012G17KT 15/03 A301 RMK A01 T01530031  RH  044%=      5-min Rain = 0
KSW1 171843Z 04016KT 16/03 A301 RMK A01 T01550030  RH  043%=      5-min Rain = 0
KSW1 171844Z 03013KT 16/03 A301 RMK A01 T01550030  RH  043%=      5-min Rain = 0
KSW1 171845Z 03013KT 15/03 A301 RMK A01 T01540029  RH  043%=      5-min Rain = 0
KSW1 171846Z 02011KT 15/03 A301 RMK A01 T01530029  RH  043%=      5-min Rain = 0
KSW1 171847Z 03013KT 15/03 A301 RMK A01 T01530029  RH  043%=      5-min Rain = 0
KSW1 171848Z 01014KT 15/03 A301 RMK A01 T01530029  RH  043%=      5-min Rain = 0
KSW1 171849Z 01013KT 15/03 A301 RMK A01 T01540030  RH  043%=      5-min Rain = 0
KSW1 171850Z 01012KT 16/03 A301 RMK A01 T01550028  RH  042%=      5-min Rain = 0
KSW1 171851Z 02013KT 15/03 A301 RMK A01 T01530028  RH  043%=      5-min Rain = 0
KSW1 171852Z 02014KT 15/03 A3011 RMK A01 T01540030  RH  043%=      5-min Rain = 0
KSW1 171853Z 01014KT 16/03 A301 RMK A01 T01560029  RH  042%=      5-min Rain = 0
KSW1 171854Z 01014KT 16/03 A301 RMK A01 T01550028  RH  043%=      5-min Rain = 0
KSW1 171855Z 03015KT 15/03 A301 RMK A01 T01540028  RH  043%=      5-min Rain = 0
KSW1 171856Z 03014KT 15/03 A301 RMK A01 T01530028  RH  043%=      5-min Rain = 0
KSW1 171857Z 01011KT 15/03 A301 RMK A01 T01530029  RH  043%=      5-min Rain = 0
KSW1 171858Z 02014KT 16/03 A301 RMK A01 T01550029  RH  043%=      5-min Rain = 0
KSW1 171859Z 01015KT 15/03 A301 RMK A01 T01540028  RH  043%=      5-min Rain = 0
KSW1 171900Z 02012KT 15/03 A301 RMK A01 T01520027  RH  043%=      5-min Rain = 0
KSW1 171901Z 01015KT 15/03 A301 RMK A01 T01520029  RH  044%=      5-min Rain = 0
KSW1 171902Z 36015KT 15/03 A301 RMK A01 T01540029  RH  043%=      5-min Rain = 0
KSW1 171903Z 35012KT 15/03 A3009 RMK A01 T01540028  RH  043%=      5-min Rain = 0
KSW1 171904Z 00013KT 15/03 A3009 RMK A01 T01540028  RH  043%=      5-min Rain = 0
KSW1 171905Z 01015KT 15/03 A3009 RMK A01 T01540029  RH  043%=      5-min Rain = 0
KSW1 171906Z 02012G18KT 16/03 A3009 RMK A01 T01550029  RH  043%=      5-min Rain = 0
KSW1 171907Z 01013G18KT 16/03 A3009 RMK A01 T01580032  RH  043%=      5-min Rain = 0
KSW1 171908Z 01014KT 16/03 A301 RMK A01 T01580027  RH  041%=      5-min Rain = 0
KSW1 171909Z 01013KT 16/03 A301 RMK A01 T01560028  RH  042%=      5-min Rain = 0
KSW1 171910Z 00012KT 16/03 A301 RMK A01 T01550029  RH  043%=      5-min Rain = 0
KSW1 171911Z 36013KT 16/03 A3009 RMK A01 T01560027  RH  042%=      5-min Rain = 0
KSW1 171912Z 02014KT 16/03 A301 RMK A01 T01550029  RH  043%=      5-min Rain = 0
KSW1 171913Z 02016KT 16/03 A3009 RMK A01 T01550027  RH  042%=      5-min Rain = 0
KSW1 171914Z 02015KT 15/03 A301 RMK A01 T01530026  RH  042%=      5-min Rain = 0
KSW1 171915Z 02012KT 15/03 A301 RMK A01 T01530027  RH  043%=      5-min Rain = 0
KSW1 171916Z 02012KT 16/03 A301 RMK A01 T01550031  RH  043%=      5-min Rain = 0
KSW1 171917Z 01011G16KT 16/03 A301 RMK A01 T01580029  RH  042%=      5-min Rain = 0
KSW1 171918Z 35009KT 16/03 A301 RMK A01 T01570029  RH  042%=      5-min Rain = 0
KSW1 171919Z 01011KT 16/03 A3009 RMK A01 T01580031  RH  042%=      5-min Rain = 0
KSW1 171920Z 36014KT 16/03 A301 RMK A01 T01590030  RH  042%=      5-min Rain = 0
KSW1 171921Z 34011KT 16/03 A3009 RMK A01 T01570028  RH  042%=      5-min Rain = 0
KSW1 171922Z 34009KT 16/03 A3009 RMK A01 T01560030  RH  043%=      5-min Rain = 0
KSW1 171923Z 34010KT 16/03 A3009 RMK A01 T01580030  RH  042%=      5-min Rain = 0
KSW1 171924Z 36010KT 16/03 A3009 RMK A01 T01590029  RH  042%=      5-min Rain = 0
KSW1 171925Z 00008KT 16/03 A3009 RMK A01 T01580030  RH  042%=      5-min Rain = 0
KSW1 171926Z 02014KT 16/03 A3009 RMK A01 T01610032  RH  042%=      5-min Rain = 0
KSW1 171927Z 03014KT 16/03 A3009 RMK A01 T01620029  RH  041%=      5-min Rain = 0
KSW1 171928Z 01012KT 16/03 A3009 RMK A01 T01590030  RH  042%=      5-min Rain = 0
KSW1 171929Z 36013KT 16/03 A3009 RMK A01 T01610029  RH  041%=      5-min Rain = 0
KSW1 171930Z 35011G16KT 16/03 A3009 RMK A01 T01590029  RH  042%=      5-min Rain = 0
KSW1 171931Z 01014G20KT 16/03 A3009 RMK A01 T01600031  RH  042%=      5-min Rain = 0
KSW1 171932Z 01016KT 16/03 A3009 RMK A01 T01620029  RH  041%=      5-min Rain = 0
KSW1 171933Z 36013KT 16/03 A3009 RMK A01 T01580027  RH  041%=      5-min Rain = 0
KSW1 171934Z 00011KT 16/03 A3009 RMK A01 T01560028  RH  042%=      5-min Rain = 0
KSW1 171935Z 34010KT 16/03 A3009 RMK A01 T01570029  RH  042%=      5-min Rain = 0
KSW1 171936Z 35012KT 16/03 A3008 RMK A01 T01570029  RH  042%=      5-min Rain = 0
KSW1 171937Z 01010KT 16/03 A3008 RMK A01 T01570030  RH  042%=      5-min Rain = 0
KSW1 171938Z 02010KT 16/03 A3008 RMK A01 T01600031  RH  042%=      5-min Rain = 0
KSW1 171939Z 01009KT 16/03 A3008 RMK A01 T01610030  RH  041%=      5-min Rain = 0
KSW1 171940Z 35014KT 16/03 A3008 RMK A01 T01610029  RH  041%=      5-min Rain = 0
KSW1 171941Z 36014KT 16/03 A3008 RMK A01 T01590027  RH  041%=      5-min Rain = 0
KSW1 171942Z 36010KT 16/03 A3008 RMK A01 T01580031  RH  042%=      5-min Rain = 0
KSW1 171943Z 00008KT 16/03 A3008 RMK A01 T01620033  RH  042%=      5-min Rain = 0
KSW1 171944Z 01009KT 17/03 A3008 RMK A01 T01660032  RH  041%=      5-min Rain = 0
KSW1 171945Z 01012KT 17/03 A3008 RMK A01 T01660030  RH  040%=      5-min Rain = 0
KSW1 171946Z 01011KT 16/03 A3008 RMK A01 T01630029  RH  041%=      5-min Rain = 0
KSW1 171947Z 01012KT 16/03 A3008 RMK A01 T01630032  RH  041%=      5-min Rain = 0
KSW1 171948Z 01013KT 16/03 A3008 RMK A01 T01640027  RH  040%=      5-min Rain = 0
KSW1 171949Z 00012KT 16/03 A3008 RMK A01 T01610027  RH  040%=      5-min Rain = 0
KSW1 171950Z 35013KT 16/03 A3008 RMK A01 T01600028  RH  041%=      5-min Rain = 0
KSW1 171951Z 01010KT 16/03 A3008 RMK A01 T01620030  RH  041%=      5-min Rain = 0
KSW1 171952Z 00013KT 17/03 A3008 RMK A01 T01650030  RH  040%=      5-min Rain = 0
KSW1 171953Z 01012KT 16/03 A3008 RMK A01 T01640030  RH  041%=      5-min Rain = 0
KSW1 171954Z 01013KT 17/03 A3008 RMK A01 T01660030  RH  040%=      5-min Rain = 0
KSW1 171955Z 01015KT 17/03 A3008 RMK A01 T01650028  RH  040%=      5-min Rain = 0
KSW1 171956Z 00014KT 16/03 A3008 RMK A01 T01630028  RH  040%=      5-min Rain = 0
KSW1 171957Z 01012KT 16/03 A3008 RMK A01 T01620027  RH  040%=      5-min Rain = 0
KSW1 171958Z 02010KT 16/03 A3008 RMK A01 T01600027  RH  041%=      5-min Rain = 0
KSW1 171959Z 01009KT 16/03 A3008 RMK A01 T01590027  RH  041%=      5-min Rain = 0
KSW1 172000Z 36016KT 16/03 A3008 RMK A01 T01590027  RH  041%=      5-min Rain = 0
KSW1 172001Z 00013KT 16/03 A3008 RMK A01 T01600028  RH  041%=      5-min Rain = 0
KSW1 172002Z 02015KT 16/03 A3009 RMK A01 T01620026  RH  040%=      5-min Rain = 0
KSW1 172003Z 02015KT 16/03 A3009 RMK A01 T01620026  RH  040%=      5-min Rain = 0
KSW1 172004Z 02012KT 16/03 A3008 RMK A01 T01620027  RH  040%=      5-min Rain = 0
KSW1 172005Z 02012G18KT 16/03 A3008 RMK A01 T01640030  RH  041%=      5-min Rain = 0
KSW1 172006Z 02014KT 17/03 A3008 RMK A01 T01670028  RH  039%=      5-min Rain = 0
KSW1 172007Z 02013KT 16/03 A3008 RMK A01 T01640026  RH  040%=      5-min Rain = 0
KSW1 172008Z 02016KT 16/03 A3008 RMK A01 T01640027  RH  040%=      5-min Rain = 0
KSW1 172009Z 01017KT 16/03 A3008 RMK A01 T01640028  RH  040%=      5-min Rain = 0
KSW1 172010Z 00014G19KT 17/03 A3008 RMK A01 T01650028  RH  040%=      5-min Rain = 0
KSW1 172011Z 00014KT 17/03 A3008 RMK A01 T01650028  RH  040%=      5-min Rain = 0
KSW1 172012Z 00013KT 17/03 A3008 RMK A01 T01650028  RH  040%=      5-min Rain = 0
KSW1 172013Z 00014KT 17/03 A3008 RMK A01 T01660028  RH  040%=      5-min Rain = 0
KSW1 172014Z 00015KT 16/03 A3008 RMK A01 T01640027  RH  040%=      5-min Rain = 0
KSW1 172015Z 35016KT 16/03 A3008 RMK A01 T01630028  RH  040%=      5-min Rain = 0
KSW1 172016Z 34018KT 17/03 A3008 RMK A01 T01660028  RH  040%=      5-min Rain = 0
KSW1 172017Z 35017KT 17/03 A3007 RMK A01 T01650026  RH  039%=      5-min Rain = 0
KSW1 172018Z 35016KT 16/03 A3008 RMK A01 T01640027  RH  040%=      5-min Rain = 0
KSW1 172019Z 01016KT 17/03 A3008 RMK A01 T01660028  RH  040%=      5-min Rain = 0
KSW1 172020Z 00015G20KT 17/03 A3008 RMK A01 T01650027  RH  039%=      5-min Rain = 0
KSW1 172021Z 00015KT 16/03 A3008 RMK A01 T01640026  RH  040%=      5-min Rain = 0
KSW1 172022Z 01018KT 16/03 A3008 RMK A01 T01640026  RH  040%=      5-min Rain = 0
KSW1 172023Z 02018KT 16/03 A3008 RMK A01 T01630025  RH  039%=      5-min Rain = 0
KSW1 172024Z 01017KT 16/02 A3008 RMK A01 T01620024  RH  039%=      5-min Rain = 0
KSW1 172025Z 01014G19KT 16/03 A3008 RMK A01 T01620025  RH  040%=      5-min Rain = 0
KSW1 172026Z 35018KT 16/03 A3007 RMK A01 T01620025  RH  040%=      5-min Rain = 0
KSW1 172027Z 00016G21KT 16/03 A3007 RMK A01 T01630025  RH  040%=      5-min Rain = 0
KSW1 172028Z 01015KT 16/03 A3007 RMK A01 T01640027  RH  040%=      5-min Rain = 0
KSW1 172029Z 01015KT 16/03 A3007 RMK A01 T01640026  RH  039%=      5-min Rain = 0
KSW1 172030Z 01015KT 16/03 A3007 RMK A01 T01620025  RH  040%=      5-min Rain = 0
KSW1 172031Z 01015G21KT 16/03 A3007 RMK A01 T01630028  RH  040%=      5-min Rain = 0
KSW1 172032Z 00016KT 17/03 A3007 RMK A01 T01650028  RH  040%=      5-min Rain = 0
KSW1 172033Z 00014KT 17/03 A3007 RMK A01 T01650026  RH  039%=      5-min Rain = 0
KSW1 172034Z 01015KT 17/03 A3007 RMK A01 T01650028  RH  040%=      5-min Rain = 0
KSW1 172035Z 01017KT 17/03 A3007 RMK A01 T01670025  RH  038%=      5-min Rain = 0
KSW1 172036Z 00017KT 17/03 A3007 RMK A01 T01660025  RH  039%=      5-min Rain = 0
KSW1 172037Z 00015G20KT 17/03 A3007 RMK A01 T01660026  RH  039%=      5-min Rain = 0
KSW1 172038Z 35014KT 17/03 A3007 RMK A01 T01660028  RH  039%=      5-min Rain = 0
KSW1 172039Z 01013KT 17/03 A3007 RMK A01 T01670028  RH  039%=      5-min Rain = 0
KSW1 172040Z 01015KT 17/03 A3007 RMK A01 T01690027  RH  038%=      5-min Rain = 0
KSW1 172041Z 01015KT 17/03 A3007 RMK A01 T01680026  RH  038%=      5-min Rain = 0
KSW1 172042Z 01017KT 17/03 A3007 RMK A01 T01670026  RH  039%=      5-min Rain = 0
KSW1 172043Z 00017KT 17/03 A3007 RMK A01 T01660025  RH  038%=      5-min Rain = 0
KSW1 172044Z 36015KT 17/02 A3007 RMK A01 T01650024  RH  039%=      5-min Rain = 0
KSW1 172045Z 01014G20KT 17/03 A3007 RMK A01 T01650026  RH  039%=      5-min Rain = 0
KSW1 172046Z 00015G21KT 17/03 A3007 RMK A01 T01670028  RH  039%=      5-min Rain = 0
KSW1 172047Z 00017KT 17/03 A3007 RMK A01 T01680026  RH  038%=      5-min Rain = 0
KSW1 172048Z 01018KT 17/02 A3007 RMK A01 T01660024  RH  038%=      5-min Rain = 0
KSW1 172049Z 01015KT 16/03 A3007 RMK A01 T01640025  RH  039%=      5-min Rain = 0
KSW1 172050Z 36011G17KT 16/03 A3007 RMK A01 T01640026  RH  039%=      5-min Rain = 0
KSW1 172051Z 01017KT 17/03 A3007 RMK A01 T01660026  RH  039%=      5-min Rain = 0
KSW1 172052Z 01015KT 17/02 A3007 RMK A01 T01670024  RH  038%=      5-min Rain = 0
KSW1 172053Z 00017KT 17/03 A3007 RMK A01 T01670025  RH  038%=      5-min Rain = 0
KSW1 172054Z 36016KT 17/02 A3007 RMK A01 T01660024  RH  038%=      5-min Rain = 0
KSW1 172055Z 01014KT 17/03 A3007 RMK A01 T01650026  RH  039%=      5-min Rain = 0
KSW1 172056Z 01015KT 17/03 A3007 RMK A01 T01650026  RH  039%=      5-min Rain = 0
KSW1 172057Z 01015KT 17/03 A3007 RMK A01 T01660025  RH  039%=      5-min Rain = 0
KSW1 172058Z 02016KT 17/03 A3007 RMK A01 T01660025  RH  039%=      5-min Rain = 0
KSW1 172059Z 02016KT 17/02 A3007 RMK A01 T01650024  RH  039%=      5-min Rain = 0
KSW1 172100Z 01011KT 16/02 A3007 RMK A01 T01640024  RH  039%=      5-min Rain = 0
KSW1 172101Z 00015KT 17/03 A3007 RMK A01 T01650026  RH  039%=      5-min Rain = 0
KSW1 172102Z 35014KT 17/03 A3007 RMK A01 T01650025  RH  039%=      5-min Rain = 0
KSW1 172103Z 35014KT 17/03 A3007 RMK A01 T01650026  RH  039%=      5-min Rain = 0
KSW1 172104Z 36015KT 17/03 A3007 RMK A01 T01660026  RH  039%=      5-min Rain = 0
KSW1 172105Z 36015G21KT 17/03 A3007 RMK A01 T01670026  RH  039%=      5-min Rain = 0
KSW1 172106Z 00013KT 17/03 A3007 RMK A01 T01680026  RH  039%=      5-min Rain = 0
KSW1 172107Z 01017KT 17/03 A3007 RMK A01 T01680025  RH  038%=      5-min Rain = 0
KSW1 172108Z 00018KT 17/02 A3007 RMK A01 T01670023  RH  038%=      5-min Rain = 0
KSW1 172109Z 00017KT 17/02 A3007 RMK A01 T01650023  RH  038%=      5-min Rain = 0
KSW1 172110Z 00015KT 16/02 A3007 RMK A01 T01640024  RH  039%=      5-min Rain = 0
KSW1 172111Z 36016KT 16/03 A3007 RMK A01 T01640025  RH  039%=      5-min Rain = 0
KSW1 172112Z 35013KT 16/03 A3007 RMK A01 T01640025  RH  039%=      5-min Rain = 0
KSW1 172113Z 01012KT 17/03 A3007 RMK A01 T01650026  RH  039%=      5-min Rain = 0
KSW1 172114Z 01015KT 17/03 A3007 RMK A01 T01660026  RH  039%=      5-min Rain = 0
KSW1 172115Z 00014G19KT 17/03 A3007 RMK A01 T01670027  RH  039%=      5-min Rain = 0
KSW1 172116Z 01014KT 17/03 A3007 RMK A01 T01670026  RH  039%=      5-min Rain = 0
KSW1 172117Z 01013KT 17/03 A3006 RMK A01 T01670026  RH  039%=      5-min Rain = 0
KSW1 172118Z 01015G20KT 17/03 A3007 RMK A01 T01670026  RH  039%=      5-min Rain = 0
KSW1 172119Z 02015KT 17/03 A3007 RMK A01 T01650025  RH  039%=      5-min Rain = 0
KSW1 172120Z 00016KT 17/03 A3006 RMK A01 T01650026  RH  039%=      5-min Rain = 0
KSW1 172121Z 00015KT 16/02 A3006 RMK A01 T01640024  RH  039%=      5-min Rain = 0
KSW1 172122Z 01016KT 16/02 A3006 RMK A01 T01620024  RH  039%=      5-min Rain = 0
KSW1 172123Z 01014KT 16/02 A3006 RMK A01 T01620024  RH  040%=      5-min Rain = 0
KSW1 172124Z 00016KT 16/02 A3006 RMK A01 T01620024  RH  040%=      5-min Rain = 0
KSW1 172125Z 00016G21KT 16/02 A3006 RMK A01 T01620023  RH  039%=      5-min Rain = 0
KSW1 172126Z 36014G20KT 16/02 A3006 RMK A01 T01620024  RH  039%=      5-min Rain = 0
KSW1 172127Z 36015G20KT 16/02 A3006 RMK A01 T01610024  RH  040%=      5-min Rain = 0
KSW1 172128Z 36015KT 16/02 A3006 RMK A01 T01620024  RH  040%=      5-min Rain = 0
KSW1 172129Z 00016G21KT 16/02 A3006 RMK A01 T01610024  RH  040%=      5-min Rain = 0
KSW1 172130Z 00016KT 16/02 A3006 RMK A01 T01610023  RH  039%=      5-min Rain = 0
KSW1 172131Z 36017KT 16/02 A3006 RMK A01 T01610023  RH  039%=      5-min Rain = 0
KSW1 172132Z 35017KT 16/02 A3006 RMK A01 T01600023  RH  040%=      5-min Rain = 0
KSW1 172133Z 36015KT 16/02 A3006 RMK A01 T01590023  RH  040%=      5-min Rain = 0
KSW1 172134Z 36016KT 16/02 A3006 RMK A01 T01580023  RH  040%=      5-min Rain = 0
KSW1 172135Z 00017KT 16/02 A3006 RMK A01 T01580023  RH  040%=      5-min Rain = 0
KSW1 172136Z 01013KT 16/02 A3006 RMK A01 T01580024  RH  041%=      5-min Rain = 0
KSW1 172137Z 01016KT 16/03 A3006 RMK A01 T01590025  RH  040%=      5-min Rain = 0
KSW1 172138Z 01013G18KT 16/03 A3006 RMK A01 T01590025  RH  041%=      5-min Rain = 0
KSW1 172139Z 02015KT 16/02 A3006 RMK A01 T01590024  RH  040%=      5-min Rain = 0
KSW1 172140Z 01012KT 16/03 A3006 RMK A01 T01590025  RH  040%=      5-min Rain = 0
KSW1 172141Z 01013KT 16/03 A3006 RMK A01 T01590026  RH  041%=      5-min Rain = 0
KSW1 172142Z 02013G18KT 16/03 A3006 RMK A01 T01590025  RH  040%=      5-min Rain = 0
KSW1 172143Z 02013KT 16/03 A3006 RMK A01 T01590026  RH  041%=      5-min Rain = 0
KSW1 172144Z 01010KT 16/03 A3006 RMK A01 T01600027  RH  041%=      5-min Rain = 0
KSW1 172145Z 01011KT 16/03 A3006 RMK A01 T01600025  RH  040%=      5-min Rain = 0
KSW1 172146Z 01009KT 16/03 A3006 RMK A01 T01610026  RH  040%=      5-min Rain = 0
KSW1 172147Z 01008KT 16/03 A3006 RMK A01 T01620027  RH  040%=      5-min Rain = 0
KSW1 172148Z 00007KT 16/03 A3006 RMK A01 T01630026  RH  040%=      5-min Rain = 0
KSW1 172149Z 01010G16KT 16/03 A3006 RMK A01 T01630025  RH  040%=      5-min Rain = 0
KSW1 172150Z 00014KT 16/03 A3006 RMK A01 T01620025  RH  040%=      5-min Rain = 0
KSW1 172151Z 01016KT 16/03 A3006 RMK A01 T01600025  RH  040%=      5-min Rain = 0
KSW1 172152Z 01013KT 16/03 A3006 RMK A01 T01600025  RH  040%=      5-min Rain = 0
KSW1 172153Z 01011KT 16/03 A3006 RMK A01 T01600025  RH  040%=      5-min Rain = 0
KSW1 172154Z 01011KT 16/03 A3006 RMK A01 T01600025  RH  040%=      5-min Rain = 0
KSW1 172155Z 00011KT 16/03 A3006 RMK A01 T01600025  RH  040%=      5-min Rain = 0
KSW1 172156Z 01008KT 16/03 A3006 RMK A01 T01600025  RH  040%=      5-min Rain = 0
KSW1 172157Z 01006KT 16/03 A3006 RMK A01 T01590026  RH  041%=      5-min Rain = 0
KSW1 172158Z 01007KT 16/03 A3006 RMK A01 T01590026  RH  041%=      5-min Rain = 0
KSW1 172159Z 01005KT 16/03 A3006 RMK A01 T01590028  RH  041%=      5-min Rain = 0
KSW1 172200Z 02007KT 16/03 A3006 RMK A01 T01610029  RH  041%=      5-min Rain = 0
KSW1 172201Z 01010KT 16/03 A3006 RMK A01 T01620027  RH  040%=      5-min Rain = 0
KSW1 172202Z 00010KT 16/03 A3006 RMK A01 T01630025  RH  040%=      5-min Rain = 0
KSW1 172203Z 00011KT 16/03 A3006 RMK A01 T01620025  RH  040%=      5-min Rain = 0
KSW1 172204Z 00011KT 16/03 A3007 RMK A01 T01610026  RH  040%=      5-min Rain = 0
KSW1 172205Z 00010KT 16/03 A3007 RMK A01 T01600026  RH  040%=      5-min Rain = 0
KSW1 172206Z 36011KT 16/03 A3007 RMK A01 T01590025  RH  040%=      5-min Rain = 0
KSW1 172207Z 01008KT 16/03 A3007 RMK A01 T01580025  RH  041%=      5-min Rain = 0
KSW1 172208Z 01007KT 16/03 A3007 RMK A01 T01580026  RH  041%=      5-min Rain = 0
KSW1 172209Z 01007KT 16/03 A3007 RMK A01 T01580026  RH  041%=      5-min Rain = 0
KSW1 172210Z 00010KT 16/03 A3007 RMK A01 T01590025  RH  041%=      5-min Rain = 0
KSW1 172211Z 00011KT 16/03 A3007 RMK A01 T01600025  RH  040%=      5-min Rain = 0
KSW1 172212Z 00011KT 16/03 A3007 RMK A01 T01610026  RH  040%=      5-min Rain = 0
KSW1 172213Z 01009KT 16/03 A3007 RMK A01 T01620027  RH  040%=      5-min Rain = 0
KSW1 172214Z 02011KT 16/03 A3007 RMK A01 T01620025  RH  040%=      5-min Rain = 0
KSW1 172215Z 01011KT 16/02 A3007 RMK A01 T01610024  RH  040%=      5-min Rain = 0
KSW1 172216Z 01009KT 16/02 A3007 RMK A01 T01600024  RH  040%=      5-min Rain = 0
KSW1 172217Z 01007KT 16/03 A3007 RMK A01 T01600025  RH  040%=      5-min Rain = 0
KSW1 172218Z 01006KT 16/03 A3007 RMK A01 T01600027  RH  041%=      5-min Rain = 0
KSW1 172219Z 01009KT 16/03 A3007 RMK A01 T01590027  RH  041%=      5-min Rain = 0
KSW1 172220Z 01009KT 16/03 A3007 RMK A01 T01590026  RH  041%=      5-min Rain = 0
KSW1 172221Z 02008KT 16/03 A3007 RMK A01 T01580026  RH  041%=      5-min Rain = 0
KSW1 172222Z 02009KT 16/03 A3007 RMK A01 T01570026  RH  041%=      5-min Rain = 0
KSW1 172223Z 02011KT 16/03 A3007 RMK A01 T01570025  RH  041%=      5-min Rain = 0
KSW1 172224Z 01010KT 16/03 A3007 RMK A01 T01570025  RH  041%=      5-min Rain = 0
KSW1 172225Z 02010KT 16/03 A3007 RMK A01 T01570025  RH  041%=      5-min Rain = 0
KSW1 172226Z 02010KT 16/03 A3007 RMK A01 T01580026  RH  041%=      5-min Rain = 0
KSW1 172227Z 03008KT 16/03 A3007 RMK A01 T01580027  RH  041%=      5-min Rain = 0
KSW1 172228Z 02010KT 16/03 A3007 RMK A01 T01580027  RH  042%=      5-min Rain = 0
KSW1 172229Z 01009KT 16/03 A3007 RMK A01 T01580026  RH  041%=      5-min Rain = 0
KSW1 172230Z 01009KT 16/03 A3007 RMK A01 T01580028  RH  042%=      5-min Rain = 0
KSW1 172231Z 01008KT 16/03 A3007 RMK A01 T01580028  RH  042%=      5-min Rain = 0
KSW1 172232Z 01007KT 16/03 A3007 RMK A01 T01590029  RH  042%=      5-min Rain = 0
KSW1 172233Z 01006KT 16/03 A3007 RMK A01 T01610029  RH  041%=      5-min Rain = 0
KSW1 172234Z 00010KT 16/03 A3007 RMK A01 T01620029  RH  041%=      5-min Rain = 0
KSW1 172235Z 00009KT 16/03 A3007 RMK A01 T01620027  RH  040%=      5-min Rain = 0
KSW1 172236Z 01010KT 16/03 A3007 RMK A01 T01610027  RH  041%=      5-min Rain = 0
KSW1 172237Z 01011KT 16/03 A3007 RMK A01 T01600026  RH  040%=      5-min Rain = 0
KSW1 172238Z 01011KT 16/03 A3006 RMK A01 T01590026  RH  041%=      5-min Rain = 0
KSW1 172239Z 01010KT 16/03 A3007 RMK A01 T01580026  RH  041%=      5-min Rain = 0
KSW1 172240Z 01011KT 16/03 A3007 RMK A01 T01570025  RH  041%=      5-min Rain = 0
KSW1 172241Z 01010KT 16/03 A3007 RMK A01 T01560025  RH  041%=      5-min Rain = 0
KSW1 172242Z 01008KT 16/03 A3007 RMK A01 T01560026  RH  042%=      5-min Rain = 0
KSW1 172243Z 01010KT 16/03 A3006 RMK A01 T01550026  RH  042%=      5-min Rain = 0
KSW1 172244Z 01009KT 16/03 A3007 RMK A01 T01550026  RH  042%=      5-min Rain = 0
KSW1 172245Z 01008KT 15/03 A3007 RMK A01 T01540026  RH  042%=      5-min Rain = 0
KSW1 172246Z 01009KT 15/03 A3007 RMK A01 T01540026  RH  042%=      5-min Rain = 0
KSW1 172247Z 00008KT 15/03 A3007 RMK A01 T01530026  RH  042%=      5-min Rain = 0
KSW1 172248Z 00008KT 15/03 A3007 RMK A01 T01520026  RH  043%=      5-min Rain = 0
KSW1 172249Z 00008KT 15/03 A3007 RMK A01 T01520026  RH  043%=      5-min Rain = 0
KSW1 172250Z 01007KT 15/03 A3007 RMK A01 T01510026  RH  043%=      5-min Rain = 0
KSW1 172251Z 01007KT 15/03 A3007 RMK A01 T01500027  RH  043%=      5-min Rain = 0
KSW1 172252Z 01007KT 15/03 A3007 RMK A01 T01500026  RH  043%=      5-min Rain = 0
KSW1 172253Z 01007KT 15/03 A3007 RMK A01 T01490026  RH  043%=      5-min Rain = 0
KSW1 172254Z 01007KT 15/03 A3007 RMK A01 T01480026  RH  044%=      5-min Rain = 0
KSW1 172255Z 01008KT 15/03 A3007 RMK A01 T01480025  RH  044%=      5-min Rain = 0
KSW1 172256Z 01007KT 15/03 A3007 RMK A01 T01480025  RH  044%=      5-min Rain = 0
KSW1 172257Z 02006KT 15/03 A3007 RMK A01 T01470025  RH  044%=      5-min Rain = 0
KSW1 172258Z 02006KT 15/03 A3007 RMK A01 T01470026  RH  044%=      5-min Rain = 0
KSW1 172259Z 02006KT 15/03 A3007 RMK A01 T01450026  RH  044%=      5-min Rain = 0
KSW1 172300Z 01006KT 14/03 A3007 RMK A01 T01440026  RH  045%=      5-min Rain = 0
KSW1 172301Z 01006KT 14/03 A3007 RMK A01 T01430026  RH  045%=      5-min Rain = 0
KSW1 172302Z 01008KT 14/03 A3007 RMK A01 T01440026  RH  045%=      5-min Rain = 0
KSW1 172303Z 01006KT 14/03 A3007 RMK A01 T01430026  RH  045%=      5-min Rain = 0
KSW1 172304Z 01007KT 14/03 A3007 RMK A01 T01430026  RH  045%=      5-min Rain = 0
KSW1 172305Z 01007KT 14/03 A3007 RMK A01 T01420026  RH  045%=      5-min Rain = 0
KSW1 172306Z 01006KT 14/03 A3007 RMK A01 T01430027  RH  045%=      5-min Rain = 0
KSW1 172307Z 01007KT 14/03 A3008 RMK A01 T01420027  RH  046%=      5-min Rain = 0
KSW1 172308Z 01006KT 14/03 A3008 RMK A01 T01420026  RH  046%=      5-min Rain = 0
KSW1 172309Z 01006KT 14/03 A3008 RMK A01 T01410026  RH  046%=      5-min Rain = 0
KSW1 172310Z 00006KT 14/03 A3008 RMK A01 T01400026  RH  046%=      5-min Rain = 0
KSW1 172311Z 00007KT 14/03 A3008 RMK A01 T01400026  RH  046%=      5-min Rain = 0
KSW1 172312Z 01006KT 14/03 A3008 RMK A01 T01390026  RH  046%=      5-min Rain = 0
KSW1 172313Z 00006KT 14/03 A3008 RMK A01 T01390027  RH  046%=      5-min Rain = 0
KSW1 172314Z 01006KT 14/03 A3008 RMK A01 T01390026  RH  047%=      5-min Rain = 0
KSW1 172315Z 00006KT 14/03 A3008 RMK A01 T01380027  RH  047%=      5-min Rain = 0
KSW1 172316Z 00006KT 14/03 A3008 RMK A01 T01380026  RH  047%=      5-min Rain = 0
KSW1 172317Z 00006KT 14/03 A3008 RMK A01 T01370026  RH  047%=      5-min Rain = 0
KSW1 172318Z 00006KT 14/03 A3008 RMK A01 T01370027  RH  047%=      5-min Rain = 0
KSW1 172319Z 00006KT 14/03 A3007 RMK A01 T01360026  RH  047%=      5-min Rain = 0
KSW1 172320Z 00007KT 14/03 A3007 RMK A01 T01350026  RH  048%=      5-min Rain = 0
KSW1 172321Z 01007KT 14/03 A3007 RMK A01 T01350026  RH  048%=      5-min Rain = 0
KSW1 172322Z 00007KT 14/03 A3008 RMK A01 T01350026  RH  048%=      5-min Rain = 0
KSW1 172323Z 00007KT 13/03 A3008 RMK A01 T01340026  RH  048%=      5-min Rain = 0
KSW1 172324Z 01007KT 13/03 A3008 RMK A01 T01340026  RH  048%=      5-min Rain = 0
KSW1 172325Z 01006KT 13/03 A3008 RMK A01 T01340026  RH  048%=      5-min Rain = 0
KSW1 172326Z 00006KT 13/03 A3008 RMK A01 T01330026  RH  048%=      5-min Rain = 0
KSW1 172327Z 01006KT 13/03 A3007 RMK A01 T01330026  RH  048%=      5-min Rain = 0
KSW1 172328Z 00006KT 13/03 A3008 RMK A01 T01320026  RH  049%=      5-min Rain = 0
KSW1 172329Z 01006KT 13/03 A3007 RMK A01 T01310026  RH  049%=      5-min Rain = 0
KSW1 172330Z 01006KT 13/03 A3007 RMK A01 T01310026  RH  049%=      5-min Rain = 0
KSW1 172331Z 01007KT 13/03 A3007 RMK A01 T01300026  RH  049%=      5-min Rain = 0
KSW1 172332Z 01006KT 13/03 A3008 RMK A01 T01290026  RH  049%=      5-min Rain = 0
KSW1 172333Z 01007KT 13/03 A3007 RMK A01 T01290026  RH  050%=      5-min Rain = 0
KSW1 172334Z 01006KT 13/03 A3007 RMK A01 T01280026  RH  050%=      5-min Rain = 0
KSW1 172335Z 01006KT 13/03 A3008 RMK A01 T01280025  RH  050%=      5-min Rain = 0
KSW1 172336Z 01006KT 13/03 A3008 RMK A01 T01280025  RH  050%=      5-min Rain = 0
KSW1 172337Z 01005KT 13/03 A3008 RMK A01 T01270025  RH  050%=      5-min Rain = 0
KSW1 172338Z 01005KT 13/03 A3008 RMK A01 T01270026  RH  050%=      5-min Rain = 0
KSW1 172339Z 01006KT 13/03 A3008 RMK A01 T01270025  RH  050%=      5-min Rain = 0
KSW1 172340Z 01005KT 13/03 A3008 RMK A01 T01260025  RH  050%=      5-min Rain = 0
KSW1 172341Z 01006KT 13/03 A3008 RMK A01 T01260025  RH  050%=      5-min Rain = 0
KSW1 172342Z 01005KT 13/03 A3008 RMK A01 T01250025  RH  050%=      5-min Rain = 0
KSW1 172343Z 02005KT 13/03 A3008 RMK A01 T01250025  RH  051%=      5-min Rain = 0
KSW1 172344Z 02005KT 13/03 A3008 RMK A01 T01250025  RH  051%=      5-min Rain = 0
KSW1 172345Z 02006KT 12/03 A3008 RMK A01 T01240025  RH  051%=      5-min Rain = 0
KSW1 172346Z 01005KT 12/03 A3008 RMK A01 T01240025  RH  051%=      5-min Rain = 0
KSW1 172347Z 01005KT 12/03 A3008 RMK A01 T01230025  RH  051%=      5-min Rain = 0
KSW1 172348Z 01005KT 12/03 A3008 RMK A01 T01220025  RH  051%=      5-min Rain = 0
KSW1 172349Z 01005KT 12/03 A3008 RMK A01 T01220025  RH  051%=      5-min Rain = 0
KSW1 172350Z 01005KT 12/03 A3008 RMK A01 T01220025  RH  052%=      5-min Rain = 0
KSW1 172351Z 02006KT 12/03 A3008 RMK A01 T01220025  RH  052%=      5-min Rain = 0
KSW1 172352Z 02006KT 12/03 A3009 RMK A01 T01210025  RH  052%=      5-min Rain = 0
KSW1 172353Z 02007KT 12/02 A3009 RMK A01 T01200024  RH  052%=      5-min Rain = 0
KSW1 172354Z 02007KT 12/02 A3009 RMK A01 T01190024  RH  052%=      5-min Rain = 0
KSW1 172355Z 02007KT 12/02 A3009 RMK A01 T01190024  RH  052%=      5-min Rain = 0
KSW1 172356Z 01007KT 12/03 A3009 RMK A01 T01180025  RH  053%=      5-min Rain = 0
KSW1 172357Z 01007KT 12/03 A3009 RMK A01 T01180025  RH  053%=      5-min Rain = 0
KSW1 172358Z 01007KT 12/03 A3009 RMK A01 T01180025  RH  053%=      5-min Rain = 0
KSW1 172359Z 01007KT 12/03 A3009 RMK A01 T01180025  RH  053%=      5-min Rain = 0
KSW1 180000Z 02007KT 12/02 A3009 RMK A01 T01180024  RH  053%=      5-min Rain = 0
KSW1 180001Z 02007KT 12/02 A3009 RMK A01 T01180024  RH  053%=      5-min Rain = 0
KSW1 180002Z 02007KT 12/02 A3009 RMK A01 T01180024  RH  053%=      5-min Rain = 0
KSW1 180003Z 01006KT 12/02 A3009 RMK A01 T01170024  RH  053%=      5-min Rain = 0
KSW1 180004Z 01006KT 12/02 A3009 RMK A01 T01160024  RH  053%=      5-min Rain = 0
KSW1 180005Z 01006KT 12/02 A3009 RMK A01 T01160024  RH  053%=      5-min Rain = 0
KSW1 180006Z 01006KT 12/02 A3009 RMK A01 T01150024  RH  054%=      5-min Rain = 0
KSW1 180007Z 01006KT 11/02 A3009 RMK A01 T01140023  RH  054%=      5-min Rain = 0
KSW1 180008Z 01006KT 11/02 A3009 RMK A01 T01130023  RH  054%=      5-min Rain = 0
KSW1 180009Z 01006KT 11/02 A3009 RMK A01 T01120023  RH  054%=      5-min Rain = 0
KSW1 180010Z 01006KT 11/02 A3009 RMK A01 T01110023  RH  055%=      5-min Rain = 0
KSW1 180011Z 01005KT 11/02 A3009 RMK A01 T01110023  RH  055%=      5-min Rain = 0
KSW1 180012Z 01005KT 11/02 A3009 RMK A01 T01100023  RH  055%=      5-min Rain = 0
KSW1 180013Z 01005KT 11/02 A3009 RMK A01 T01100023  RH  055%=      5-min Rain = 0
KSW1 180014Z 01005KT 11/02 A3009 RMK A01 T01100023  RH  055%=      5-min Rain = 0
KSW1 180015Z 01006KT 11/02 A3009 RMK A01 T01100023  RH  055%=      5-min Rain = 0
KSW1 180016Z 01006KT 11/02 A3009 RMK A01 T01100023  RH  055%=      5-min Rain = 0
KSW1 180017Z 01005KT 11/02 A3009 RMK A01 T01100023  RH  055%=      5-min Rain = 0
KSW1 180018Z 01005KT 11/02 A3009 RMK A01 T01100023  RH  055%=      5-min Rain = 0
KSW1 180019Z 01005KT 11/02 A3009 RMK A01 T01100023  RH  055%=      5-min Rain = 0
KSW1 180020Z 01005KT 11/02 A3009 RMK A01 T01110023  RH  055%=      5-min Rain = 0
KSW1 180021Z 01005KT 11/02 A3009 RMK A01 T01110023  RH  055%=      5-min Rain = 0
KSW1 180022Z 02004KT 11/02 A3009 RMK A01 T01100023  RH  055%=      5-min Rain = 0
KSW1 180023Z 02004KT 11/02 A3009 RMK A01 T01090023  RH  055%=      5-min Rain = 0
KSW1 180024Z 02004KT 11/02 A3009 RMK A01 T01080023  RH  056%=      5-min Rain = 0
KSW1 180025Z 03003KT 11/02 A3009 RMK A01 T01070023  RH  056%=      5-min Rain = 0
KSW1 180026Z 04003KT 11/02 A3009 RMK A01 T01070023  RH  056%=      5-min Rain = 0
KSW1 180027Z 04004KT 11/02 A3009 RMK A01 T01070023  RH  056%=      5-min Rain = 0
KSW1 180028Z 04004KT 11/02 A301 RMK A01 T01080023  RH  056%=      5-min Rain = 0
KSW1 180029Z 03004KT 11/02 A301 RMK A01 T01080023  RH  056%=      5-min Rain = 0
KSW1 180030Z 03004KT 11/02 A301 RMK A01 T01090024  RH  055%=      5-min Rain = 0
KSW1 180031Z 03004KT 11/02 A301 RMK A01 T01100024  RH  055%=      5-min Rain = 0
KSW1 180032Z 04004KT 11/02 A301 RMK A01 T01110024  RH  055%=      5-min Rain = 0
KSW1 180033Z 03004KT 11/02 A301 RMK A01 T01110024  RH  055%=      5-min Rain = 0
KSW1 180034Z 02004KT 11/02 A301 RMK A01 T01110024  RH  055%=      5-min Rain = 0
KSW1 180035Z 02004KT 11/02 A301 RMK A01 T01120024  RH  055%=      5-min Rain = 0
KSW1 180036Z 02004KT 11/03 A3009 RMK A01 T01130025  RH  054%=      5-min Rain = 0
KSW1 180037Z 02004KT 12/03 A301 RMK A01 T01150025  RH  054%=      5-min Rain = 0
KSW1 180038Z 01004KT 12/03 A301 RMK A01 T01150025  RH  054%=      5-min Rain = 0
KSW1 180039Z 01004KT 12/02 A301 RMK A01 T01150024  RH  054%=      5-min Rain = 0
KSW1 180040Z 01004KT 12/02 A301 RMK A01 T01160024  RH  053%=      5-min Rain = 0
KSW1 180041Z 01004KT 12/02 A301 RMK A01 T01160024  RH  053%=      5-min Rain = 0
KSW1 180042Z 01004KT 12/02 A301 RMK A01 T01160024  RH  053%=      5-min Rain = 0
KSW1 180043Z 01004KT 12/02 A301 RMK A01 T01170024  RH  053%=      5-min Rain = 0
KSW1 180044Z 02004KT 12/02 A301 RMK A01 T01170024  RH  053%=      5-min Rain = 0
KSW1 180045Z 02004KT 12/02 A301 RMK A01 T01160024  RH  053%=      5-min Rain = 0
KSW1 180046Z 01005KT 12/02 A301 RMK A01 T01160024  RH  053%=      5-min Rain = 0
KSW1 180047Z 01005KT 12/02 A301 RMK A01 T01160024  RH  053%=      5-min Rain = 0
KSW1 180048Z 01005KT 12/02 A301 RMK A01 T01150024  RH  054%=      5-min Rain = 0
KSW1 180049Z 01005KT 11/02 A301 RMK A01 T01140024  RH  054%=      5-min Rain = 0
KSW1 180050Z 01005KT 11/02 A301 RMK A01 T01140024  RH  054%=      5-min Rain = 0
KSW1 180051Z 01004KT 11/02 A301 RMK A01 T01130024  RH  054%=      5-min Rain = 0
KSW1 180052Z 01004KT 11/02 A301 RMK A01 T01120024  RH  054%=      5-min Rain = 0
KSW1 180053Z 01004KT 11/02 A301 RMK A01 T01120024  RH  055%=      5-min Rain = 0
KSW1 180054Z 01004KT 11/02 A301 RMK A01 T01110024  RH  055%=      5-min Rain = 0
KSW1 180055Z 01004KT 11/02 A301 RMK A01 T01120024  RH  055%=      5-min Rain = 0
KSW1 180056Z 01004KT 11/02 A301 RMK A01 T01120024  RH  055%=      5-min Rain = 0
KSW1 180057Z 01004KT 11/02 A301 RMK A01 T01110024  RH  055%=      5-min Rain = 0
KSW1 180058Z 01004KT 11/02 A301 RMK A01 T01110024  RH  055%=      5-min Rain = 0
KSW1 180059Z 01004KT 11/02 A301 RMK A01 T01120024  RH  055%=      5-min Rain = 0
KSW1 180100Z 02003KT 11/02 A301 RMK A01 T01120024  RH  055%=      5-min Rain = 0
KSW1 180101Z 02003KT 11/02 A301 RMK A01 T01120024  RH  055%=      5-min Rain = 0
KSW1 180102Z 02002KT 11/02 A301 RMK A01 T01110024  RH  055%=      5-min Rain = 0
KSW1 180103Z 02002KT 11/02 A301 RMK A01 T01110023  RH  055%=      5-min Rain = 0
KSW1 180104Z 03002KT 11/02 A301 RMK A01 T01100023  RH  055%=      5-min Rain = 0
KSW1 180105Z 04002KT 11/02 A301 RMK A01 T01060022  RH  056%=      5-min Rain = 0
KSW1 180106Z 05001KT 10/02 A301 RMK A01 T00980022  RH  059%=      5-min Rain = 0
KSW1 180107Z 05001KT 10/02 A3011 RMK A01 T00950023  RH  061%=      5-min Rain = 0
KSW1 180108Z 05000KT 09/02 A3011 RMK A01 T00940023  RH  061%=      5-min Rain = 0
KSW1 180109Z 00000KT 09/02 A3011 RMK A01 T00910022  RH  062%=      5-min Rain = 0
KSW1 180110Z 00000KT 09/02 A3011 RMK A01 T00870022  RH  064%=      5-min Rain = 0
KSW1 180111Z 00000KT 08/02 A3011 RMK A01 T00830021  RH  065%=      5-min Rain = 0
KSW1 180112Z 13001KT 08/02 A3011 RMK A01 T00810022  RH  066%=      5-min Rain = 0
KSW1 180113Z 13003KT 08/02 A3011 RMK A01 T00800022  RH  067%=      5-min Rain = 0
KSW1 180114Z 12003KT 08/02 A3011 RMK A01 T00790023  RH  067%=      5-min Rain = 0
KSW1 180115Z 12004KT 08/02 A3011 RMK A01 T00790023  RH  068%=      5-min Rain = 0
KSW1 180116Z 12004KT 08/02 A3011 RMK A01 T00780023  RH  068%=      5-min Rain = 0
KSW1 180117Z 12004KT 08/02 A3011 RMK A01 T00770022  RH  068%=      5-min Rain = 0
KSW1 180118Z 12003KT 08/02 A3011 RMK A01 T00750023  RH  069%=      5-min Rain = 0
KSW1 180119Z 13003KT 08/02 A3011 RMK A01 T00750023  RH  070%=      5-min Rain = 0
KSW1 180120Z 14004KT 08/02 A3011 RMK A01 T00760024  RH  069%=      5-min Rain = 0
KSW1 180121Z 14005KT 08/02 A3011 RMK A01 T00770024  RH  069%=      5-min Rain = 0
KSW1 180122Z 14004KT 08/02 A3011 RMK A01 T00780024  RH  069%=      5-min Rain = 0
KSW1 180123Z 15004KT 08/02 A3011 RMK A01 T00780024  RH  069%=      5-min Rain = 0
KSW1 180124Z 15003KT 08/03 A3011 RMK A01 T00790025  RH  069%=      5-min Rain = 0
KSW1 180125Z 15003KT 08/03 A3011 RMK A01 T00790025  RH  068%=      5-min Rain = 0
KSW1 180126Z 15003KT 08/03 A3011 RMK A01 T00810026  RH  068%=      5-min Rain = 0
KSW1 180127Z 15003KT 08/03 A3011 RMK A01 T00830026  RH  067%=      5-min Rain = 0
KSW1 180128Z 16004KT 09/03 A3011 RMK A01 T00850026  RH  066%=      5-min Rain = 0
KSW1 180129Z 16004KT 09/03 A3011 RMK A01 T00850025  RH  066%=      5-min Rain = 0
KSW1 180130Z 16004KT 09/03 A3011 RMK A01 T00850025  RH  066%=      5-min Rain = 0
KSW1 180131Z 16004KT 09/03 A3011 RMK A01 T00850025  RH  066%=      5-min Rain = 0
KSW1 180132Z 16004KT 09/03 A3011 RMK A01 T00850025  RH  066%=      5-min Rain = 0
KSW1 180133Z 15004KT 08/02 A3011 RMK A01 T00840024  RH  066%=      5-min Rain = 0
KSW1 180134Z 15004KT 08/02 A3012 RMK A01 T00840024  RH  066%=      5-min Rain = 0
KSW1 180135Z 16004KT 08/02 A3012 RMK A01 T00830024  RH  066%=      5-min Rain = 0
KSW1 180136Z 16004KT 08/02 A3012 RMK A01 T00830024  RH  067%=      5-min Rain = 0
KSW1 180137Z 16004KT 08/02 A3012 RMK A01 T00820024  RH  067%=      5-min Rain = 0
KSW1 180138Z 15004KT 08/02 A3012 RMK A01 T00820024  RH  067%=      5-min Rain = 0
KSW1 180139Z 15004KT 08/02 A3012 RMK A01 T00820024  RH  067%=      5-min Rain = 0
KSW1 180140Z 15004KT 08/02 A3012 RMK A01 T00820024  RH  067%=      5-min Rain = 0
KSW1 180141Z 15004KT 08/02 A3012 RMK A01 T00820023  RH  066%=      5-min Rain = 0
KSW1 180142Z 16004KT 08/02 A3012 RMK A01 T00820024  RH  067%=      5-min Rain = 0
KSW1 180143Z 16003KT 08/02 A3012 RMK A01 T00820024  RH  067%=      5-min Rain = 0
KSW1 180144Z 16003KT 08/02 A3012 RMK A01 T00820023  RH  066%=      5-min Rain = 0
KSW1 180145Z 15003KT 08/02 A3012 RMK A01 T00820023  RH  066%=      5-min Rain = 0
KSW1 180146Z 16003KT 08/02 A3012 RMK A01 T00830024  RH  066%=      5-min Rain = 0
KSW1 180147Z 16003KT 08/02 A3012 RMK A01 T00840024  RH  066%=      5-min Rain = 0
KSW1 180148Z 16002KT 09/02 A3012 RMK A01 T00850024  RH  065%=      5-min Rain = 0
KSW1 180149Z 17003KT 09/02 A3012 RMK A01 T00870024  RH  065%=      5-min Rain = 0
KSW1 180150Z 17002KT 09/03 A3012 RMK A01 T00890025  RH  064%=      5-min Rain = 0
KSW1 180151Z 17002KT 09/03 A3012 RMK A01 T00910025  RH  064%=      5-min Rain = 0
KSW1 180152Z 17002KT 09/03 A3012 RMK A01 T00930025  RH  063%=      5-min Rain = 0
KSW1 180153Z 17002KT 10/03 A3012 RMK A01 T00950025  RH  062%=      5-min Rain = 0
KSW1 180154Z 17002KT 10/03 A3012 RMK A01 T00970025  RH  061%=      5-min Rain = 0
KSW1 180155Z 17002KT 10/03 A3012 RMK A01 T00970025  RH  061%=      5-min Rain = 0
KSW1 180156Z 17001KT 10/02 A3012 RMK A01 T00970024  RH  060%=      5-min Rain = 0
KSW1 180157Z 17001KT 10/02 A3012 RMK A01 T00970024  RH  061%=      5-min Rain = 0
KSW1 180158Z 17001KT 10/02 A3012 RMK A01 T00960024  RH  061%=      5-min Rain = 0
KSW1 180159Z 17001KT 10/02 A3012 RMK A01 T00950024  RH  061%=      5-min Rain = 0
KSW1 180200Z 17000KT 09/02 A3012 RMK A01 T00930023  RH  062%=      5-min Rain = 0
KSW1 180201Z 17000KT 09/02 A3012 RMK A01 T00910024  RH  062%=      5-min Rain = 0
KSW1 180202Z 17000KT 09/02 A3012 RMK A01 T00910024  RH  063%=      5-min Rain = 0
KSW1 180203Z 17000KT 09/02 A3012 RMK A01 T00910024  RH  063%=      5-min Rain = 0
KSW1 180204Z 17000KT 09/02 A3011 RMK A01 T00910024  RH  063%=      5-min Rain = 0
KSW1 180205Z 17000KT 09/02 A3011 RMK A01 T00910024  RH  063%=      5-min Rain = 0
KSW1 180206Z 17000KT 09/03 A3011 RMK A01 T00930025  RH  063%=      5-min Rain = 0
KSW1 180207Z 17000KT 09/02 A3011 RMK A01 T00940024  RH  062%=      5-min Rain = 0
KSW1 180208Z 17000KT 09/02 A3011 RMK A01 T00930024  RH  062%=      5-min Rain = 0
KSW1 180209Z 17000KT 09/03 A3012 RMK A01 T00940025  RH  062%=      5-min Rain = 0
KSW1 180210Z 17001KT 10/03 A3012 RMK A01 T00960026  RH  061%=      5-min Rain = 0
KSW1 180211Z 17001KT 10/03 A3012 RMK A01 T00980025  RH  061%=      5-min Rain = 0
KSW1 180212Z 17001KT 10/03 A3012 RMK A01 T00980025  RH  061%=      5-min Rain = 0
KSW1 180213Z 17001KT 10/03 A3012 RMK A01 T00980025  RH  060%=      5-min Rain = 0
KSW1 180214Z 18001KT 10/03 A3012 RMK A01 T00980025  RH  060%=      5-min Rain = 0
KSW1 180215Z 18002KT 10/03 A3012 RMK A01 T00990025  RH  060%=      5-min Rain = 0
KSW1 180216Z 17002KT 10/02 A3012 RMK A01 T01000024  RH  060%=      5-min Rain = 0
KSW1 180217Z 17002KT 10/02 A3012 RMK A01 T00980024  RH  060%=      5-min Rain = 0
KSW1 180218Z 17002KT 10/02 A3012 RMK A01 T00970024  RH  060%=      5-min Rain = 0
KSW1 180219Z 16002KT 10/02 A3012 RMK A01 T00960024  RH  061%=      5-min Rain = 0
KSW1 180220Z 16002KT 09/02 A3012 RMK A01 T00930023  RH  062%=      5-min Rain = 0
KSW1 180221Z 16002KT 09/02 A3012 RMK A01 T00890022  RH  063%=      5-min Rain = 0
KSW1 180222Z 16002KT 09/02 A3012 RMK A01 T00860022  RH  064%=      5-min Rain = 0
KSW1 180223Z 16001KT 08/02 A3012 RMK A01 T00830021  RH  065%=      5-min Rain = 0
KSW1 180224Z 16001KT 08/02 A3012 RMK A01 T00810022  RH  066%=      5-min Rain = 0
KSW1 180225Z 16001KT 08/02 A3012 RMK A01 T00800022  RH  067%=      5-min Rain = 0
KSW1 180226Z 16001KT 08/02 A3012 RMK A01 T00800023  RH  067%=      5-min Rain = 0
KSW1 180227Z 16001KT 08/02 A3012 RMK A01 T00800023  RH  067%=      5-min Rain = 0
KSW1 180228Z 16001KT 08/02 A3012 RMK A01 T00800023  RH  067%=      5-min Rain = 0
KSW1 180229Z 16001KT 08/02 A3012 RMK A01 T00810023  RH  067%=      5-min Rain = 0
KSW1 180230Z 16001KT 08/02 A3012 RMK A01 T00820023  RH  066%=      5-min Rain = 0
KSW1 180231Z 16001KT 08/02 A3012 RMK A01 T00830023  RH  066%=      5-min Rain = 0
KSW1 180232Z 16001KT 08/02 A3012 RMK A01 T00840023  RH  066%=      5-min Rain = 0
KSW1 180233Z 16001KT 09/02 A3012 RMK A01 T00850024  RH  066%=      5-min Rain = 0
KSW1 180234Z 16000KT 09/02 A3012 RMK A01 T00860024  RH  065%=      5-min Rain = 0
KSW1 180235Z 16001KT 09/02 A3012 RMK A01 T00870024  RH  065%=      5-min Rain = 0
KSW1 180236Z 16001KT 09/02 A3013 RMK A01 T00880024  RH  064%=      5-min Rain = 0
KSW1 180237Z 16001KT 09/02 A3013 RMK A01 T00900024  RH  064%=      5-min Rain = 0
KSW1 180238Z 16001KT 09/02 A3013 RMK A01 T00910024  RH  063%=      5-min Rain = 0
KSW1 180239Z 16001KT 09/02 A3013 RMK A01 T00920024  RH  063%=      5-min Rain = 0
KSW1 180240Z 16001KT 09/02 A3013 RMK A01 T00930024  RH  062%=      5-min Rain = 0
KSW1 180241Z 16001KT 09/02 A3013 RMK A01 T00930024  RH  062%=      5-min Rain = 0
KSW1 180242Z 16001KT 09/02 A3013 RMK A01 T00930024  RH  062%=      5-min Rain = 0
KSW1 180243Z 16001KT 09/02 A3013 RMK A01 T00930024  RH  062%=      5-min Rain = 0
KSW1 180244Z 16001KT 09/02 A3012 RMK A01 T00940024  RH  062%=      5-min Rain = 0
KSW1 180245Z 16000KT 10/02 A3012 RMK A01 T00950024  RH  061%=      5-min Rain = 0
KSW1 180246Z 16001KT 10/02 A3012 RMK A01 T00950024  RH  061%=      5-min Rain = 0
KSW1 180247Z 16001KT 10/02 A3012 RMK A01 T00950024  RH  061%=      5-min Rain = 0
KSW1 180248Z 16001KT 10/02 A3013 RMK A01 T00960024  RH  061%=      5-min Rain = 0
KSW1 180249Z 16001KT 10/03 A3013 RMK A01 T00970025  RH  061%=      5-min Rain = 0
KSW1 180250Z 16001KT 10/03 A3013 RMK A01 T00980025  RH  060%=      5-min Rain = 0
KSW1 180251Z 16001KT 10/03 A3013 RMK A01 T01000025  RH  060%=      5-min Rain = 0
KSW1 180252Z 16002KT 10/03 A3013 RMK A01 T01010025  RH  059%=      5-min Rain = 0
KSW1 180253Z 16002KT 10/03 A3013 RMK A01 T01020025  RH  059%=      5-min Rain = 0
KSW1 180254Z 16002KT 10/02 A3013 RMK A01 T01020024  RH  059%=      5-min Rain = 0
KSW1 180255Z 16002KT 10/02 A3013 RMK A01 T01010024  RH  059%=      5-min Rain = 0
KSW1 180256Z 16002KT 10/02 A3013 RMK A01 T01000023  RH  059%=      5-min Rain = 0
KSW1 180257Z 16002KT 10/02 A3013 RMK A01 T00970023  RH  060%=      5-min Rain = 0
KSW1 180258Z 16002KT 09/02 A3013 RMK A01 T00940023  RH  061%=      5-min Rain = 0
KSW1 180259Z 16001KT 09/02 A3013 RMK A01 T00930023  RH  062%=      5-min Rain = 0
KSW1 180300Z 16002KT 09/02 A3013 RMK A01 T00920023  RH  062%=      5-min Rain = 0
KSW1 180301Z 16001KT 09/02 A3013 RMK A01 T00910023  RH  062%=      5-min Rain = 0
KSW1 180302Z 16001KT 09/02 A3013 RMK A01 T00900023  RH  063%=      5-min Rain = 0
KSW1 180303Z 16002KT 09/02 A3013 RMK A01 T00890023  RH  063%=      5-min Rain = 0
KSW1 180304Z 14002KT 09/02 A3013 RMK A01 T00890023  RH  063%=      5-min Rain = 0
KSW1 180305Z 14002KT 09/02 A3013 RMK A01 T00880023  RH  063%=      5-min Rain = 0
KSW1 180306Z 14003KT 09/02 A3013 RMK A01 T00880023  RH  064%=      5-min Rain = 0
KSW1 180307Z 14002KT 09/02 A3013 RMK A01 T00880023  RH  064%=      5-min Rain = 0
KSW1 180308Z 14002KT 09/02 A3013 RMK A01 T00870023  RH  064%=      5-min Rain = 0
KSW1 180309Z 14002KT 09/02 A3013 RMK A01 T00870023  RH  064%=      5-min Rain = 0
KSW1 180310Z 14002KT 09/02 A3013 RMK A01 T00870023  RH  064%=      5-min Rain = 0
KSW1 180311Z 13002KT 09/02 A3013 RMK A01 T00870023  RH  064%=      5-min Rain = 0
KSW1 180312Z 11002KT 09/02 A3013 RMK A01 T00870023  RH  064%=      5-min Rain = 0
KSW1 180313Z 09002KT 09/02 A3013 RMK A01 T00870023  RH  064%=      5-min Rain = 0
KSW1 180314Z 08002KT 09/02 A3013 RMK A01 T00880024  RH  064%=      5-min Rain = 0
KSW1 180315Z 07002KT 09/02 A3013 RMK A01 T00900024  RH  063%=      5-min Rain = 0
KSW1 180316Z 07003KT 09/03 A3013 RMK A01 T00920025  RH  063%=      5-min Rain = 0
KSW1 180317Z 07003KT 09/02 A3013 RMK A01 T00930024  RH  062%=      5-min Rain = 0
KSW1 180318Z 07003KT 09/03 A3013 RMK A01 T00940025  RH  062%=      5-min Rain = 0
KSW1 180319Z 07003KT 09/02 A3013 RMK A01 T00940024  RH  062%=      5-min Rain = 0
KSW1 180320Z 07003KT 09/02 A3013 RMK A01 T00940024  RH  062%=      5-min Rain = 0
KSW1 180321Z 07004KT 09/02 A3013 RMK A01 T00940024  RH  062%=      5-min Rain = 0
KSW1 180322Z 07004KT 09/02 A3012 RMK A01 T00930024  RH  062%=      5-min Rain = 0
KSW1 180323Z 07004KT 09/02 A3012 RMK A01 T00930024  RH  062%=      5-min Rain = 0
KSW1 180324Z 07004KT 09/03 A3012 RMK A01 T00920025  RH  063%=      5-min Rain = 0
KSW1 180325Z 07004KT 09/03 A3012 RMK A01 T00920025  RH  063%=      5-min Rain = 0
KSW1 180326Z 08003KT 09/03 A3012 RMK A01 T00940025  RH  062%=      5-min Rain = 0
KSW1 180327Z 08003KT 09/03 A3013 RMK A01 T00940025  RH  062%=      5-min Rain = 0
KSW1 180328Z 08003KT 10/03 A3013 RMK A01 T00950025  RH  062%=      5-min Rain = 0
KSW1 180329Z 08003KT 10/03 A3013 RMK A01 T00960025  RH  061%=      5-min Rain = 0
KSW1 180330Z 08003KT 10/03 A3013 RMK A01 T00970026  RH  061%=      5-min Rain = 0
KSW1 180331Z 08003KT 10/03 A3013 RMK A01 T00970025  RH  061%=      5-min Rain = 0
KSW1 180332Z 08002KT 10/03 A3013 RMK A01 T00980026  RH  061%=      5-min Rain = 0
KSW1 180333Z 07003KT 10/02 A3013 RMK A01 T00960023  RH  060%=      5-min Rain = 0
KSW1 180334Z 07003KT 09/02 A3012 RMK A01 T00890022  RH  063%=      5-min Rain = 0
KSW1 180335Z 07003KT 09/02 A3012 RMK A01 T00850023  RH  065%=      5-min Rain = 0
KSW1 180336Z 07003KT 08/02 A3012 RMK A01 T00840024  RH  066%=      5-min Rain = 0
KSW1 180337Z 07003KT 08/02 A3012 RMK A01 T00840024  RH  066%=      5-min Rain = 0
KSW1 180338Z 07003KT 09/03 A3012 RMK A01 T00850025  RH  066%=      5-min Rain = 0
KSW1 180339Z 07003KT 09/03 A3012 RMK A01 T00880026  RH  065%=      5-min Rain = 0
KSW1 180340Z 08002KT 09/03 A3012 RMK A01 T00910027  RH  064%=      5-min Rain = 0
KSW1 180341Z 09002KT 09/03 A3012 RMK A01 T00940027  RH  063%=      5-min Rain = 0
KSW1 180342Z 09002KT 10/03 A3012 RMK A01 T00960027  RH  062%=      5-min Rain = 0
KSW1 180343Z 10002KT 10/03 A3012 RMK A01 T00980026  RH  061%=      5-min Rain = 0
KSW1 180344Z 14000KT 09/02 A3013 RMK A01 T00930021  RH  061%=      5-min Rain = 0
KSW1 180345Z 18001KT 08/02 A3013 RMK A01 T00780016  RH  065%=      5-min Rain = 0
KSW1 180346Z 19002KT 07/02 A3013 RMK A01 T00680015  RH  069%=      5-min Rain = 0
KSW1 180347Z 19002KT 06/02 A3013 RMK A01 T00620015  RH  072%=      5-min Rain = 0
KSW1 180348Z 20002KT 06/02 A3013 RMK A01 T00580015  RH  074%=      5-min Rain = 0
KSW1 180349Z 20002KT 06/02 A3013 RMK A01 T00550015  RH  076%=      5-min Rain = 0
KSW1 180350Z 19002KT 05/02 A3013 RMK A01 T00540017  RH  077%=      5-min Rain = 0
KSW1 180351Z 19002KT 05/02 A3013 RMK A01 T00540018  RH  077%=      5-min Rain = 0
KSW1 180352Z 19002KT 05/02 A3013 RMK A01 T00540018  RH  078%=      5-min Rain = 0
KSW1 180353Z 20002KT 05/02 A3013 RMK A01 T00540018  RH  078%=      5-min Rain = 0
KSW1 180354Z 20002KT 05/02 A3013 RMK A01 T00530017  RH  078%=      5-min Rain = 0
KSW1 180355Z 19002KT 05/02 A3013 RMK A01 T00520018  RH  078%=      5-min Rain = 0
KSW1 180356Z 19003KT 05/02 A3013 RMK A01 T00530019  RH  078%=      5-min Rain = 0
KSW1 180357Z 18003KT 06/02 A3013 RMK A01 T00550020  RH  078%=      5-min Rain = 0
KSW1 180358Z 18003KT 06/02 A3013 RMK A01 T00570020  RH  077%=      5-min Rain = 0
KSW1 180359Z 17003KT 06/02 A3013 RMK A01 T00590021  RH  077%=      5-min Rain = 0
KSW1 180400Z 17003KT 06/02 A3013 RMK A01 T00610021  RH  076%=      5-min Rain = 0
KSW1 180401Z 17003KT 06/02 A3013 RMK A01 T00640022  RH  075%=      5-min Rain = 0
KSW1 180402Z 17003KT 07/02 A3013 RMK A01 T00660022  RH  073%=      5-min Rain = 0
KSW1 180403Z 17003KT 07/02 A3013 RMK A01 T00670021  RH  073%=      5-min Rain = 0
KSW1 180404Z 17003KT 07/02 A3013 RMK A01 T00670021  RH  072%=      5-min Rain = 0
KSW1 180405Z 17003KT 07/02 A3013 RMK A01 T00680021  RH  072%=      5-min Rain = 0
KSW1 180406Z 17003KT 07/02 A3013 RMK A01 T00690022  RH  072%=      5-min Rain = 0
KSW1 180407Z 17002KT 07/02 A3013 RMK A01 T00690022  RH  072%=      5-min Rain = 0
KSW1 180408Z 17002KT 07/02 A3013 RMK A01 T00690021  RH  071%=      5-min Rain = 0
KSW1 180409Z 17002KT 07/02 A3013 RMK A01 T00700021  RH  071%=      5-min Rain = 0
KSW1 180410Z 16003KT 07/02 A3013 RMK A01 T00700021  RH  071%=      5-min Rain = 0
KSW1 180411Z 16003KT 07/02 A3013 RMK A01 T00700021  RH  071%=      5-min Rain = 0
KSW1 180412Z 16003KT 07/02 A3013 RMK A01 T00700021  RH  071%=      5-min Rain = 0
KSW1 180413Z 16003KT 07/02 A3013 RMK A01 T00690022  RH  072%=      5-min Rain = 0
KSW1 180414Z 15003KT 07/02 A3013 RMK A01 T00690022  RH  072%=      5-min Rain = 0
KSW1 180415Z 14003KT 07/02 A3013 RMK A01 T00690022  RH  072%=      5-min Rain = 0
KSW1 180416Z 14002KT 07/02 A3013 RMK A01 T00680021  RH  072%=      5-min Rain = 0
KSW1 180417Z 14003KT 07/02 A3013 RMK A01 T00680021  RH  072%=      5-min Rain = 0
KSW1 180418Z 13002KT 07/02 A3013 RMK A01 T00670021  RH  073%=      5-min Rain = 0
KSW1 180419Z 13002KT 07/02 A3013 RMK A01 T00670021  RH  073%=      5-min Rain = 0
KSW1 180420Z 14002KT 07/02 A3012 RMK A01 T00670022  RH  073%=      5-min Rain = 0
KSW1 180421Z 14003KT 07/02 A3012 RMK A01 T00680023  RH  073%=      5-min Rain = 0
KSW1 180422Z 14003KT 07/02 A3012 RMK A01 T00690023  RH  073%=      5-min Rain = 0
KSW1 180423Z 14003KT 07/02 A3012 RMK A01 T00700023  RH  072%=      5-min Rain = 0
KSW1 180424Z 14003KT 07/02 A3012 RMK A01 T00710023  RH  072%=      5-min Rain = 0
KSW1 180425Z 13003KT 07/02 A3012 RMK A01 T00720023  RH  071%=      5-min Rain = 0
KSW1 180426Z 14003KT 07/02 A3012 RMK A01 T00720023  RH  071%=      5-min Rain = 0
KSW1 180427Z 14003KT 07/02 A3012 RMK A01 T00720023  RH  071%=      5-min Rain = 0
KSW1 180428Z 15003KT 07/02 A3012 RMK A01 T00720023  RH  071%=      5-min Rain = 0
KSW1 180429Z 15004KT 07/02 A3012 RMK A01 T00730023  RH  071%=      5-min Rain = 0
KSW1 180430Z 16004KT 07/02 A3012 RMK A01 T00730023  RH  070%=      5-min Rain = 0
KSW1 180431Z 16004KT 07/02 A3012 RMK A01 T00740023  RH  070%=      5-min Rain = 0
KSW1 180432Z 16004KT 07/02 A3012 RMK A01 T00740023  RH  070%=      5-min Rain = 0
KSW1 180433Z 15003KT 07/02 A3012 RMK A01 T00740023  RH  070%=      5-min Rain = 0
KSW1 180434Z 15003KT 07/02 A3012 RMK A01 T00740023  RH  070%=      5-min Rain = 0
KSW1 180435Z 15003KT 07/02 A3012 RMK A01 T00740023  RH  070%=      5-min Rain = 0
KSW1 180436Z 15003KT 07/02 A3012 RMK A01 T00740023  RH  070%=      5-min Rain = 0
KSW1 180437Z 14003KT 07/02 A3012 RMK A01 T00730023  RH  070%=      5-min Rain = 0
KSW1 180438Z 13003KT 07/02 A3011 RMK A01 T00730023  RH  070%=      5-min Rain = 0
KSW1 180439Z 13003KT 07/02 A3011 RMK A01 T00720023  RH  071%=      5-min Rain = 0
KSW1 180440Z 13003KT 07/02 A3011 RMK A01 T00720023  RH  071%=      5-min Rain = 0
KSW1 180441Z 12003KT 07/02 A3011 RMK A01 T00720023  RH  071%=      5-min Rain = 0
KSW1 180442Z 13003KT 07/02 A3011 RMK A01 T00730023  RH  071%=      5-min Rain = 0
KSW1 180443Z 13003KT 07/02 A3011 RMK A01 T00730023  RH  071%=      5-min Rain = 0
KSW1 180444Z 13003KT 08/02 A3011 RMK A01 T00750024  RH  070%=      5-min Rain = 0
KSW1 180445Z 14004KT 08/02 A3011 RMK A01 T00750024  RH  070%=      5-min Rain = 0
KSW1 180446Z 14004KT 08/02 A3011 RMK A01 T00770024  RH  069%=      5-min Rain = 0
KSW1 180447Z 14004KT 08/02 A3011 RMK A01 T00780024  RH  069%=      5-min Rain = 0
KSW1 180448Z 14004KT 08/02 A3011 RMK A01 T00780024  RH  069%=      5-min Rain = 0
KSW1 180449Z 14004KT 08/02 A3011 RMK A01 T00780024  RH  068%=      5-min Rain = 0
KSW1 180450Z 14004KT 08/02 A3011 RMK A01 T00780024  RH  068%=      5-min Rain = 0
KSW1 180451Z 14004KT 08/02 A3011 RMK A01 T00780024  RH  068%=      5-min Rain = 0
KSW1 180452Z 14004KT 08/02 A3011 RMK A01 T00770024  RH  069%=      5-min Rain = 0
KSW1 180453Z 15004KT 08/02 A3011 RMK A01 T00770024  RH  069%=      5-min Rain = 0
KSW1 180454Z 15004KT 08/02 A3011 RMK A01 T00760023  RH  069%=      5-min Rain = 0
KSW1 180455Z 15004KT 08/02 A3011 RMK A01 T00760023  RH  069%=      5-min Rain = 0
KSW1 180456Z 15004KT 08/02 A3011 RMK A01 T00750023  RH  069%=      5-min Rain = 0
KSW1 180457Z 15003KT 08/02 A3011 RMK A01 T00750023  RH  070%=      5-min Rain = 0
KSW1 180458Z 15004KT 07/02 A3011 RMK A01 T00740023  RH  070%=      5-min Rain = 0
KSW1 180459Z 14003KT 07/02 A3011 RMK A01 T00730023  RH  070%=      5-min Rain = 0
KSW1 180500Z 15003KT 07/02 A3011 RMK A01 T00720022  RH  071%=      5-min Rain = 0
KSW1 180501Z 15004KT 07/02 A3011 RMK A01 T00720023  RH  071%=      5-min Rain = 0
KSW1 180502Z 14003KT 07/02 A301 RMK A01 T00720023  RH  071%=      5-min Rain = 0
KSW1 180503Z 14003KT 07/02 A301 RMK A01 T00720023  RH  071%=      5-min Rain = 0
KSW1 180504Z 14003KT 07/02 A301 RMK A01 T00730023  RH  071%=      5-min Rain = 0
KSW1 180505Z 15004KT 07/02 A301 RMK A01 T00730023  RH  071%=      5-min Rain = 0
KSW1 180506Z 15004KT 07/02 A301 RMK A01 T00740023  RH  070%=      5-min Rain = 0
KSW1 180507Z 15003KT 07/02 A301 RMK A01 T00740023  RH  070%=      5-min Rain = 0
KSW1 180508Z 15003KT 07/02 A301 RMK A01 T00740023  RH  070%=      5-min Rain = 0
KSW1 180509Z 14003KT 08/02 A301 RMK A01 T00750024  RH  070%=      5-min Rain = 0
KSW1 180510Z 14003KT 08/02 A301 RMK A01 T00750023  RH  070%=      5-min Rain = 0
KSW1 180511Z 14003KT 07/02 A301 RMK A01 T00740023  RH  070%=      5-min Rain = 0
KSW1 180512Z 13003KT 07/02 A301 RMK A01 T00740023  RH  070%=      5-min Rain = 0
KSW1 180513Z 13004KT 07/02 A301 RMK A01 T00740023  RH  070%=      5-min Rain = 0
KSW1 180514Z 12004KT 07/02 A301 RMK A01 T00730022  RH  070%=      5-min Rain = 0
KSW1 180515Z 11004KT 07/02 A301 RMK A01 T00720023  RH  071%=      5-min Rain = 0
KSW1 180516Z 11005KT 07/02 A301 RMK A01 T00710023  RH  071%=      5-min Rain = 0
KSW1 180517Z 11005KT 07/02 A3009 RMK A01 T00700023  RH  072%=      5-min Rain = 0
KSW1 180518Z 12005KT 07/02 A3009 RMK A01 T00700023  RH  072%=      5-min Rain = 0
KSW1 180519Z 12005KT 07/02 A3009 RMK A01 T00690023  RH  072%=      5-min Rain = 0
KSW1 180520Z 12005KT 07/02 A3009 RMK A01 T00680023  RH  073%=      5-min Rain = 0
KSW1 180521Z 12005KT 07/02 A3009 RMK A01 T00670023  RH  073%=      5-min Rain = 0
KSW1 180522Z 12005KT 07/02 A301 RMK A01 T00670023  RH  074%=      5-min Rain = 0
KSW1 180523Z 13005KT 07/02 A301 RMK A01 T00660023  RH  074%=      5-min Rain = 0
KSW1 180524Z 13004KT 07/02 A301 RMK A01 T00670023  RH  074%=      5-min Rain = 0
KSW1 180525Z 14004KT 07/02 A301 RMK A01 T00670023  RH  074%=      5-min Rain = 0
KSW1 180526Z 14004KT 07/02 A301 RMK A01 T00680024  RH  073%=      5-min Rain = 0
KSW1 180527Z 15004KT 07/02 A301 RMK A01 T00690024  RH  073%=      5-min Rain = 0
KSW1 180528Z 15003KT 07/02 A301 RMK A01 T00700024  RH  072%=      5-min Rain = 0
KSW1 180529Z 16003KT 07/02 A301 RMK A01 T00710024  RH  072%=      5-min Rain = 0
KSW1 180530Z 16003KT 07/02 A301 RMK A01 T00710024  RH  072%=      5-min Rain = 0
KSW1 180531Z 16003KT 07/02 A301 RMK A01 T00710024  RH  072%=      5-min Rain = 0
KSW1 180532Z 15003KT 07/02 A301 RMK A01 T00720024  RH  072%=      5-min Rain = 0
KSW1 180533Z 15003KT 07/02 A301 RMK A01 T00720024  RH  071%=      5-min Rain = 0
KSW1 180534Z 15003KT 07/02 A301 RMK A01 T00730024  RH  071%=      5-min Rain = 0
KSW1 180535Z 14002KT 07/02 A301 RMK A01 T00740024  RH  071%=      5-min Rain = 0
KSW1 180536Z 14002KT 07/02 A301 RMK A01 T00740024  RH  070%=      5-min Rain = 0
KSW1 180537Z 15002KT 07/02 A301 RMK A01 T00740024  RH  070%=      5-min Rain = 0
KSW1 180538Z 15002KT 07/02 A301 RMK A01 T00740024  RH  071%=      5-min Rain = 0
KSW1 180539Z 15002KT 07/02 A3009 RMK A01 T00740024  RH  071%=      5-min Rain = 0
KSW1 180540Z 15002KT 07/02 A3009 RMK A01 T00740024  RH  071%=      5-min Rain = 0
KSW1 180541Z 15002KT 08/02 A3009 RMK A01 T00750024  RH  070%=      5-min Rain = 0
KSW1 180542Z 15002KT 08/02 A3009 RMK A01 T00750024  RH  070%=      5-min Rain = 0
KSW1 180543Z 14002KT 08/03 A3009 RMK A01 T00760025  RH  070%=      5-min Rain = 0
KSW1 180544Z 14002KT 08/02 A3009 RMK A01 T00760024  RH  070%=      5-min Rain = 0
KSW1 180545Z 14002KT 08/02 A3009 RMK A01 T00770024  RH  069%=      5-min Rain = 0
KSW1 180546Z 14002KT 08/02 A3009 RMK A01 T00770024  RH  069%=      5-min Rain = 0
KSW1 180547Z 14002KT 08/03 A3009 RMK A01 T00780025  RH  069%=      5-min Rain = 0
KSW1 180548Z 13002KT 08/02 A3009 RMK A01 T00780024  RH  069%=      5-min Rain = 0
KSW1 180549Z 13003KT 08/02 A3009 RMK A01 T00790024  RH  068%=      5-min Rain = 0
KSW1 180550Z 13002KT 08/02 A3009 RMK A01 T00790024  RH  068%=      5-min Rain = 0
KSW1 180551Z 14002KT 08/03 A3009 RMK A01 T00800025  RH  068%=      5-min Rain = 0
KSW1 180552Z 14002KT 08/03 A3009 RMK A01 T00800025  RH  068%=      5-min Rain = 0
KSW1 180553Z 14002KT 08/02 A3009 RMK A01 T00810024  RH  068%=      5-min Rain = 0
KSW1 180554Z 15003KT 08/02 A3009 RMK A01 T00810024  RH  068%=      5-min Rain = 0
KSW1 180555Z 16003KT 08/02 A3009 RMK A01 T00810024  RH  067%=      5-min Rain = 0
KSW1 180556Z 16003KT 08/02 A3009 RMK A01 T00810024  RH  067%=      5-min Rain = 0
KSW1 180557Z 16003KT 08/02 A3009 RMK A01 T00810024  RH  067%=      5-min Rain = 0
KSW1 180558Z 17003KT 08/02 A3009 RMK A01 T00810024  RH  067%=      5-min Rain = 0
KSW1 180559Z 17003KT 08/02 A3009 RMK A01 T00800024  RH  068%=      5-min Rain = 0

Page generated in 0.1412 seconds.